DW6912 Weather Reports


Display with metric or nautical units.
time (UTC)temp
F
wind
direction
speed
MPH
gust
MPH
rain 1hr
in
rain 24hr
in
rain mn
in
humidity
%
barometer
mb
20260508035901 55 5 3.0 9.0 0.00 0.00 0.00 60 1009.5
20260508035800 55 17 5.0 9.0 0.00 0.00 0.00 60 1009.5
20260508035701 55 329 1.0 9.0 0.00 0.00 0.00 60 1009.4
20260508035505 55 279 4.0 9.0 0.00 0.00 0.00 60 1009.5
20260508035400 55 279 2.0 9.0 0.00 0.00 0.00 60 1009.3
20260508035300 55 22 9.0 9.0 0.00 0.00 0.00 61 1009.3
20260508035200 55 336 3.0 4.0 0.00 0.00 0.00 60 1009.3
20260508035101 55 325 3.0 4.0 0.00 0.00 0.00 60 1009.2
20260508035005 55 264 2.0 4.0 0.00 0.00 0.00 61 1009.1
20260508034703 54 264 3.0 4.0 0.00 0.00 0.00 62 1009.0
20260508034601 54 288 1.0 3.0 0.00 0.00 0.00 62 1009.0
20260508034506 54 288 2.0 3.0 0.00 0.00 0.00 63 1009.0
20260508034402 54 288 1.0 4.0 0.00 0.00 0.00 63 1008.9
20260508034302 54 288 1.0 4.0 0.00 0.00 0.00 63 1008.9
20260508034201 54 288 1.0 4.0 0.00 0.00 0.00 64 1008.9
20260508034100 54 288 0.0 4.0 0.00 0.00 0.00 64 1008.9
20260508034005 54 288 0.0 4.0 0.00 0.00 0.00 63 1008.9
20260508033900 54 288 2.0 4.0 0.00 0.00 0.00 62 1008.9
20260508033801 54 291 0.0 4.0 0.00 0.00 0.00 62 1008.8
20260508033701 54 291 2.0 4.0 0.00 0.00 0.00 62 1008.8
20260508033600 54 291 0.0 4.0 0.00 0.00 0.00 62 1008.8
20260508033506 54 291 3.0 4.0 0.00 0.00 0.00 63 1008.8
20260508033401 54 248 1.0 4.0 0.00 0.00 0.00 65 1008.8
20260508033301 54 248 0.0 4.0 0.00 0.00 0.00 65 1008.8
20260508033201 54 248 3.0 4.0 0.00 0.00 0.00 64 1008.8
20260508033100 54 248 3.0 3.0 0.00 0.00 0.00 64 1008.7
20260508033005 54 248 0.0 1.0 0.00 0.00 0.00 63 1008.8
20260508032900 54 248 0.0 1.0 0.00 0.00 0.00 63 1008.7
20260508032801 54 248 0.0 1.0 0.00 0.00 0.00 62 1008.6
20260508032601 54 248 0.0 1.0 0.00 0.00 0.00 63 1008.6
20260508032504 54 248 0.0 1.0 0.00 0.00 0.00 63 1008.6
20260508032400 55 248 0.0 1.0 0.00 0.00 0.00 63 1008.6
20260508032300 55 248 0.0 1.0 0.00 0.00 0.00 63 1008.6
20260508032202 55 248 1.0 1.0 0.00 0.00 0.00 63 1008.6
20260508032101 55 248 0.0 1.0 0.00 0.00 0.00 63 1008.6
20260508032005 55 248 0.0 2.0 0.00 0.00 0.00 62 1008.6
20260508031901 55 248 1.0 2.0 0.00 0.00 0.00 62 1008.6
20260508031801 55 248 0.0 3.0 0.00 0.00 0.00 62 1008.6
20260508031700 55 248 0.0 3.0 0.00 0.00 0.00 62 1008.6
20260508031601 55 248 0.0 3.0 0.00 0.00 0.00 62 1008.6
20260508031507 55 248 0.0 3.0 0.00 0.00 0.00 61 1008.5
20260508031401 55 248 0.0 3.0 0.00 0.00 0.00 61 1008.5
20260508031302 55 248 0.0 3.0 0.00 0.00 0.00 61 1008.5
20260508031201 55 248 0.0 3.0 0.00 0.00 0.00 61 1008.5
20260508031004 55 248 1.0 3.0 0.00 0.00 0.00 61 1008.5
20260508030903 55 248 1.0 3.0 0.00 0.00 0.00 61 1008.5
20260508030801 56 248 1.0 3.0 0.00 0.00 0.00 61 1008.5
20260508030504 56 248 0.0 3.0 0.00 0.00 0.00 61 1008.5
20260508030402 56 248 1.0 3.0 0.00 0.00 0.00 60 1008.5
20260508030300 56 248 3.0 3.0 0.00 0.00 0.00 60 1008.5
20260508030201 56 248 0.0 2.0 0.00 0.00 0.00 60 1008.5
20260508030005 56 248 1.0 2.0 0.00 0.00 0.00 59 1008.4
20260508025902 56 248 0.0 2.0 0.00 0.00 0.00 59 1008.4
20260508025802 56 248 0.0 2.0 0.00 0.00 0.00 59 1008.4
20260508025702 56 248 2.0 2.0 0.00 0.00 0.00 60 1008.5
20260508025603 56 248 0.0 2.0 0.00 0.00 0.00 61 1008.4
20260508025505 56 248 0.0 2.0 0.00 0.00 0.00 61 1008.4
20260508025401 56 248 0.0 2.0 0.00 0.00 0.00 59 1008.4
20260508025305 56 248 0.0 2.0 0.00 0.00 0.00 59 1008.4
20260508025102 56 248 0.0 2.0 0.00 0.00 0.00 59 1008.4
20260508025005 56 248 0.0 2.0 0.00 0.00 0.00 60 1008.4
20260508024902 56 248 0.0 2.0 0.00 0.00 0.00 58 1008.4
20260508024701 56 248 1.0 3.0 0.00 0.00 0.00 60 1008.4
20260508024602 56 248 0.0 3.0 0.00 0.00 0.00 60 1008.4
20260508024505 57 248 1.0 3.0 0.00 0.00 0.00 58 1008.3
20260508024301 57 248 1.0 3.0 0.00 0.00 0.00 58 1008.4
20260508024102 57 248 0.0 3.0 0.00 0.00 0.00 57 1008.4
20260508023802 57 248 1.0 2.0 0.00 0.00 0.00 57 1008.3
20260508023703 57 248 0.0 0.0 0.00 0.00 0.00 58 1008.3
20260508023602 57 248 0.0 0.0 0.00 0.00 0.00 58 1008.3
20260508023506 57 248 0.0 0.0 0.00 0.00 0.00 57 1008.3
20260508023402 57 248 0.0 0.0 0.00 0.00 0.00 57 1008.3
20260508023301 57 248 0.0 1.0 0.00 0.00 0.00 56 1008.3
20260508023202 57 248 0.0 2.0 0.00 0.00 0.00 57 1008.3
20260508023102 57 248 0.0 3.0 0.00 0.00 0.00 57 1008.3
20260508023005 57 248 0.0 4.0 0.00 0.00 0.00 57 1008.3
20260508022902 57 248 0.0 4.0 0.00 0.00 0.00 57 1008.3
20260508022802 57 248 0.0 4.0 0.00 0.00 0.00 57 1008.3
20260508022702 57 248 0.0 5.0 0.00 0.00 0.00 57 1008.2
20260508022601 57 248 0.0 5.0 0.00 0.00 0.00 59 1008.2
20260508022505 57 248 0.0 5.0 0.00 0.00 0.00 58 1008.2
20260508022402 57 248 0.0 5.0 0.00 0.00 0.00 59 1008.3
20260508022306 57 248 1.0 5.0 0.00 0.00 0.00 59 1008.3
20260508022203 57 248 2.0 5.0 0.00 0.00 0.00 58 1008.2
20260508022102 57 248 2.0 5.0 0.00 0.00 0.00 57 1008.3
20260508022005 57 247 1.0 5.0 0.00 0.00 0.00 58 1008.2
20260508021802 57 242 4.0 5.0 0.00 0.00 0.00 59 1008.3
20260508021602 56 246 1.0 3.0 0.00 0.00 0.00 59 1008.2
20260508021401 56 246 1.0 3.0 0.00 0.00 0.00 57 1008.2
20260508021303 56 246 1.0 5.0 0.00 0.00 0.00 62 1008.2
20260508021203 56 246 0.0 5.0 0.00 0.00 0.00 61 1008.2
20260508021103 56 246 0.0 5.0 0.00 0.00 0.00 61 1008.2
20260508021004 56 246 2.0 5.0 0.00 0.00 0.00 60 1008.2
20260508020902 56 246 1.0 5.0 0.00 0.00 0.00 60 1008.2
20260508020801 56 246 1.0 5.0 0.00 0.00 0.00 61 1008.2
20260508020703 56 246 0.0 5.0 0.00 0.00 0.00 61 1008.2
20260508020602 56 246 1.0 5.0 0.00 0.00 0.00 60 1008.2
20260508020504 56 246 1.0 5.0 0.00 0.00 0.00 58 1008.1
20260508020203 56 251 1.0 4.0 0.00 0.00 0.00 62 1008.1
20260508020005 56 251 0.0 4.0 0.00 0.00 0.00 59 1008.0
20260508015900 56 251 1.0 4.0 0.00 0.00 0.00 58 1008.1
20260508015800 56 245 1.0 4.0 0.00 0.00 0.00 60 1008.0
20260508015700 56 245 1.0 4.0 0.00 0.00 0.00 59 1008.0
20260508015505 55 245 2.0 4.0 0.00 0.00 0.00 62 1008.0
20260508015301 55 245 1.0 4.0 0.00 0.00 0.00 61 1008.0
20260508015202 55 245 1.0 4.0 0.00 0.00 0.00 63 1008.0
20260508015005 55 245 0.0 4.0 0.00 0.00 0.00 59 1008.0
20260508014902 55 245 2.0 4.0 0.00 0.00 0.00 61 1008.0
20260508014801 55 258 1.0 3.0 0.00 0.00 0.00 61 1008.0
20260508014701 55 257 0.0 3.0 0.00 0.00 0.00 61 1007.9
20260508014601 55 258 0.0 3.0 0.00 0.00 0.00 62 1007.9
20260508014506 55 258 0.0 3.0 0.00 0.00 0.00 63 1008.0
20260508014400 55 257 0.0 3.0 0.00 0.00 0.00 62 1007.9
20260508014301 55 257 0.0 3.0 0.00 0.00 0.00 63 1007.9
20260508014101 55 257 2.0 3.0 0.00 0.00 0.00 61 1007.8
20260508014007 55 303 1.0 2.0 0.00 0.00 0.00 61 1007.9
20260508013901 55 303 1.0 2.0 0.00 0.00 0.00 61 1007.9
20260508013800 55 303 0.0 2.0 0.00 0.00 0.00 61 1007.8
20260508013601 56 303 1.0 2.0 0.00 0.00 0.00 59 1007.8
20260508013505 56 303 0.0 2.0 0.00 0.00 0.00 60 1007.8
20260508013359 56 303 0.0 2.0 0.00 0.00 0.00 60 1007.7
20260508013301 56 303 0.0 2.0 0.00 0.00 0.00 60 1007.7
20260508013202 56 303 2.0 2.0 0.00 0.00 0.00 59 1007.7
20260508013101 56 303 0.0 1.0 0.00 0.00 0.00 59 1007.7
20260508013006 56 303 0.0 1.0 0.00 0.00 0.00 58 1007.7
20260508012901 56 303 0.0 1.0 0.00 0.00 0.00 58 1007.7
20260508012801 56 303 0.0 1.0 0.00 0.00 0.00 58 1007.6
20260508012602 56 303 0.0 0.0 0.00 0.00 0.00 57 1007.6
20260508012505 56 303 0.0 0.0 0.00 0.00 0.00 57 1007.5
20260508012401 57 303 0.0 1.0 0.00 0.00 0.00 57 1007.5
20260508012306 57 303 0.0 2.0 0.00 0.00 0.00 57 1007.5
20260508012201 57 303 0.0 2.0 0.00 0.00 0.00 57 1007.5
20260508012101 57 303 0.0 2.0 0.00 0.00 0.00 56 1007.4
20260508012006 57 303 0.0 2.0 0.00 0.00 0.00 56 1007.4
20260508011902 57 303 0.0 2.0 0.00 0.00 0.00 57 1007.4
20260508011802 57 303 0.0 2.0 0.00 0.00 0.00 56 1007.4
20260508011701 57 303 0.0 2.0 0.00 0.00 0.00 57 1007.4
20260508011601 57 303 0.0 2.0 0.00 0.00 0.00 58 1007.4
20260508011506 57 303 0.0 2.0 0.00 0.00 0.00 58 1007.4
20260508011403 58 303 1.0 2.0 0.00 0.00 0.00 56 1007.4
20260508011301 58 303 0.0 3.0 0.00 0.00 0.00 55 1007.4
20260508011202 58 303 0.0 3.0 0.00 0.00 0.00 55 1007.4
20260508011102 58 303 0.0 3.0 0.00 0.00 0.00 54 1007.4
20260508010901 58 303 0.0 3.0 0.00 0.00 0.00 54 1007.4
20260508010802 58 303 0.0 3.0 0.00 0.00 0.00 54 1007.4
20260508010703 58 303 0.0 3.0 0.00 0.00 0.00 53 1007.4
20260508010602 58 303 0.0 3.0 0.00 0.00 0.00 53 1007.4
20260508010401 58 303 1.0 3.0 0.00 0.00 0.00 53 1007.4
20260508010302 58 303 2.0 3.0 0.00 0.00 0.00 53 1007.3
20260508010201 58 303 0.0 3.0 0.00 0.00 0.00 53 1007.3
20260508010101 59 303 0.0 3.0 0.00 0.00 0.00 53 1007.2
20260508010006 59 303 0.0 3.0 0.00 0.00 0.00 53 1007.3
20260508005904 59 303 0.0 3.0 0.00 0.00 0.00 52 1007.3
20260508005803 59 303 1.0 3.0 0.00 0.00 0.00 53 1007.3
20260508005602 59 303 1.0 3.0 0.00 0.00 0.00 52 1007.3
20260508005505 59 303 0.0 3.0 0.00 0.00 0.00 53 1007.2
20260508005401 59 303 3.0 3.0 0.00 0.00 0.00 52 1007.2
20260508005305 59 303 0.0 3.0 0.00 0.00 0.00 53 1007.2
20260508005102 59 303 0.0 3.0 0.00 0.00 0.00 52 1007.2
20260508004903 59 303 1.0 3.0 0.00 0.00 0.00 53 1007.2
20260508004804 59 303 0.0 3.0 0.00 0.00 0.00 53 1007.2
20260508004703 59 303 1.0 3.0 0.00 0.00 0.00 53 1007.2
20260508004603 59 303 1.0 3.0 0.00 0.00 0.00 51 1007.2
20260508004507 59 303 1.0 5.0 0.00 0.00 0.00 52 1007.1
20260508004401 59 303 2.0 5.0 0.00 0.00 0.00 53 1007.1
20260508004301 59 290 0.0 5.0 0.00 0.00 0.00 53 1007.1
20260508004203 59 290 0.0 5.0 0.00 0.00 0.00 53 1007.1
20260508004103 59 290 0.0 5.0 0.00 0.00 0.00 54 1007.1
20260508004005 59 290 0.0 5.0 0.00 0.00 0.00 53 1007.1
20260508003903 59 290 1.0 5.0 0.00 0.00 0.00 54 1007.0
20260508003802 59 290 1.0 5.0 0.00 0.00 0.00 52 1007.0
20260508003702 59 290 2.0 5.0 0.00 0.00 0.00 51 1007.0
20260508003506 59 306 5.0 5.0 0.00 0.00 0.00 52 1007.0
20260508003401 59 275 3.0 4.0 0.00 0.00 0.00 52 1007.0
20260508003303 59 263 2.0 3.0 0.00 0.00 0.00 52 1007.0
20260508003203 59 263 1.0 3.0 0.00 0.00 0.00 51 1006.9
20260508003102 59 263 2.0 3.0 0.00 0.00 0.00 51 1007.0
20260508003006 59 263 1.0 3.0 0.00 0.00 0.00 52 1007.0
20260508002803 59 263 1.0 3.0 0.00 0.00 0.00 52 1006.9
20260508002602 59 263 0.0 3.0 0.00 0.00 0.00 55 1006.9
20260508002506 59 263 0.0 3.0 0.00 0.00 0.00 52 1006.9
20260508002302 59 263 0.0 3.0 0.00 0.00 0.00 52 1006.9
20260508002102 59 263 1.0 3.0 0.00 0.00 0.00 53 1006.9
20260508001902 59 263 2.0 2.0 0.00 0.00 0.00 55 1007.0
20260508001704 59 263 0.0 2.0 0.00 0.00 0.00 54 1006.9
20260508001303 59 263 0.0 2.0 0.00 0.00 0.00 54 1006.9
20260508001201 59 263 0.0 2.0 0.00 0.00 0.00 53 1006.9
20260508001102 59 263 1.0 2.0 0.00 0.00 0.00 53 1006.9
20260508001006 59 263 1.0 2.0 0.00 0.00 0.00 52 1006.9
20260508000902 59 263 0.0 2.0 0.00 0.00 0.00 52 1006.9
20260508000802 59 263 1.0 2.0 0.00 0.00 0.00 51 1006.9
20260508000601 60 263 0.0 2.0 0.00 0.00 0.00 51 1007.0
20260508000505 60 263 1.0 2.0 0.00 0.00 0.00 51 1006.9
20260508000404 60 263 0.0 2.0 0.00 0.00 0.00 50 1006.9
20260508000302 60 263 1.0 4.0 0.00 0.00 0.00 51 1006.9
20260508000204 60 263 0.0 6.0 0.00 0.00 0.00 51 1006.9
20260508000005 60 263 0.0 6.0 0.00 0.00 0.00 51 1006.9
20260507235902 60 263 0.0 6.0 0.00 0.00 0.00 51 1006.9
20260507235800 60 263 1.0 6.0 0.00 0.00 0.00 49 1006.9
20260507235701 60 263 0.0 6.0 0.00 0.00 0.00 50 1006.9
20260507235601 60 263 1.0 6.0 0.00 0.00 0.00 50 1006.9
20260507235505 60 263 1.0 6.0 0.00 0.00 0.00 51 1006.8
20260507235401 60 263 2.0 6.0 0.00 0.00 0.00 50 1006.8
20260507235306 60 355 1.0 3.0 0.00 0.00 0.00 51 1006.8
20260507234901 61 355 1.0 6.0 0.00 0.00 0.00 49 1006.8
20260507234801 61 355 1.0 6.0 0.00 0.00 0.00 50 1006.8
20260507234700 61 355 2.0 6.0 0.00 0.00 0.00 49 1006.8
20260507234600 61 355 1.0 6.0 0.00 0.00 0.00 49 1006.8
20260507234504 61 355 2.0 6.0 0.00 0.00 0.00 50 1006.8
20260507234401 61 355 0.0 6.0 0.00 0.00 0.00 48 1006.8
20260507234303 61 355 1.0 6.0 0.00 0.00 0.00 48 1006.7
20260507234202 61 42 4.0 4.0 0.00 0.00 0.00 49 1006.7
20260507234100 61 5 2.0 3.0 0.00 0.00 0.00 49 1006.7
20260507233901 61 5 2.0 3.0 0.00 0.00 0.00 49 1006.7
20260507233801 61 5 1.0 2.0 0.00 0.00 0.00 49 1006.7
20260507233702 61 5 0.0 2.0 0.00 0.00 0.00 50 1006.7
20260507233601 61 5 0.0 4.0 0.00 0.00 0.00 49 1006.7
20260507233505 61 5 0.0 4.0 0.00 0.00 0.00 49 1006.7
20260507233401 61 5 0.0 4.0 0.00 0.00 0.00 48 1006.7
20260507233101 61 5 0.0 4.0 0.00 0.00 0.00 50 1006.7
20260507233006 61 5 0.0 4.0 0.00 0.00 0.00 50 1006.7
20260507232901 61 5 0.0 4.0 0.00 0.00 0.00 49 1006.7
20260507232702 61 5 2.0 4.0 0.00 0.00 0.00 50 1006.7
20260507232601 61 5 2.0 4.0 0.00 0.00 0.00 50 1006.7
20260507232506 61 5 0.0 4.0 0.00 0.00 0.00 49 1006.7
20260507232401 61 5 0.0 4.0 0.00 0.00 0.00 50 1006.7
20260507232300 61 5 1.0 4.0 0.00 0.00 0.00 49 1006.6
20260507232201 61 5 0.0 4.0 0.00 0.00 0.00 48 1006.6
20260507232102 61 5 0.0 4.0 0.00 0.00 0.00 49 1006.6
20260507231902 62 5 2.0 4.0 0.00 0.00 0.00 48 1006.6
20260507231801 62 5 3.0 4.0 0.00 0.00 0.00 48 1006.6
20260507231700 62 11 3.0 4.0 0.00 0.00 0.00 50 1006.5
20260507231601 62 11 2.0 4.0 0.00 0.00 0.00 49 1006.5
20260507231400 62 305 1.0 6.0 0.00 0.00 0.00 48 1006.6
20260507231300 62 305 1.0 6.0 0.00 0.00 0.00 47 1006.6
20260507231202 62 305 4.0 6.0 0.00 0.00 0.00 48 1006.6
20260507230902 62 26 0.0 6.0 0.00 0.00 0.00 50 1006.4
20260507230801 62 26 0.0 6.0 0.00 0.00 0.00 49 1006.3
20260507230701 62 26 0.0 6.0 0.00 0.00 0.00 48 1006.3
20260507230602 62 26 1.0 6.0 0.00 0.00 0.00 48 1006.3
20260507230401 62 292 3.0 5.0 0.00 0.00 0.00 50 1006.2
20260507230202 62 285 0.0 5.0 0.00 0.00 0.00 49 1006.3
20260507230100 62 285 2.0 5.0 0.00 0.00 0.00 47 1006.3
20260507230005 62 284 2.0 5.0 0.00 0.00 0.00 48 1006.3
20260507225902 62 284 1.0 5.0 0.00 0.04 0.00 47 1006.3
20260507225803 62 284 0.0 5.0 0.00 0.04 0.00 48 1006.3
20260507225703 63 276 1.0 5.0 0.00 0.04 0.00 48 1006.3
20260507225602 63 276 1.0 5.0 0.00 0.04 0.00 48 1006.2
20260507225504 63 276 2.0 5.0 0.00 0.04 0.00 49 1006.3
20260507225403 63 249 1.0 6.0 0.00 0.04 0.00 51 1006.3
20260507225202 63 340 1.0 6.0 0.00 0.04 0.00 47 1006.3
20260507225102 63 329 3.0 6.0 0.00 0.04 0.00 48 1006.3
20260507225005 63 292 0.0 6.0 0.00 0.04 0.00 48 1006.3
20260507224902 63 269 3.0 6.0 0.00 0.04 0.00 47 1006.3
20260507224802 63 269 1.0 6.0 0.00 0.04 0.00 49 1006.3
20260507224702 63 269 2.0 6.0 0.00 0.04 0.00 49 1006.3
20260507224601 63 269 3.0 3.0 0.00 0.04 0.00 49 1006.3
20260507224505 63 269 1.0 3.0 0.00 0.04 0.00 49 1006.2
20260507224401 63 269 2.0 3.0 0.00 0.04 0.00 48 1006.2
20260507224203 63 263 3.0 3.0 0.00 0.04 0.00 49 1006.2
20260507224006 63 289 0.0 3.0 0.00 0.04 0.00 47 1006.2
20260507223902 63 289 1.0 3.0 0.00 0.04 0.00 48 1006.2
20260507223703 63 289 0.0 3.0 0.00 0.04 0.00 46 1006.2
20260507223601 63 289 0.0 3.0 0.00 0.04 0.00 46 1006.2
20260507223505 63 289 1.0 3.0 0.00 0.04 0.00 48 1006.2
20260507223402 63 289 1.0 2.0 0.00 0.04 0.00 51 1006.2
20260507223301 63 288 0.0 2.0 0.00 0.04 0.00 52 1006.3
20260507223201 63 289 0.0 2.0 0.00 0.04 0.00 53 1006.3
20260507223101 63 289 0.0 2.0 0.00 0.04 0.00 50 1006.3
20260507223006 63 289 0.0 2.0 0.00 0.04 0.00 51 1006.2
20260507222901 63 289 0.0 2.0 0.00 0.04 0.00 50 1006.3
20260507222801 63 289 0.0 2.0 0.00 0.04 0.00 47 1006.2
20260507222703 63 289 1.0 2.0 0.00 0.04 0.00 47 1006.3
20260507222603 63 289 2.0 2.0 0.00 0.04 0.00 49 1006.3
20260507222506 63 288 0.0 2.0 0.00 0.04 0.00 49 1006.3
20260507222403 63 289 1.0 4.0 0.00 0.04 0.00 52 1006.3
20260507222301 63 289 1.0 4.0 0.00 0.04 0.00 49 1006.3
20260507222102 63 289 1.0 4.0 0.00 0.04 0.00 49 1006.3
20260507222006 63 289 1.0 4.0 0.00 0.04 0.00 47 1006.3
20260507221903 63 289 1.0 4.0 0.00 0.04 0.00 47 1006.2
20260507221802 63 289 0.0 4.0 0.00 0.04 0.00 48 1006.2
20260507221602 63 289 1.0 5.0 0.00 0.04 0.00 47 1006.2
20260507221506 63 289 3.0 5.0 0.00 0.04 0.00 46 1006.2
20260507221303 63 284 2.0 5.0 0.00 0.04 0.00 49 1006.2
20260507221202 63 16 0.0 5.0 0.00 0.04 0.00 50 1006.2
20260507221101 63 16 1.0 5.0 0.00 0.04 0.00 48 1006.2
20260507221006 63 16 2.0 5.0 0.00 0.04 0.00 50 1006.3
20260507220901 63 16 2.0 5.0 0.00 0.04 0.00 48 1006.2
20260507220601 63 24 2.0 4.0 0.00 0.04 0.00 48 1006.2
20260507220506 63 26 1.0 4.0 0.00 0.04 0.00 48 1006.2
20260507220402 63 26 3.0 4.0 0.00 0.04 0.00 47 1006.2
20260507220202 63 269 1.0 4.0 0.00 0.04 0.00 48 1006.2
20260507220006 63 269 2.0 4.0 0.00 0.04 0.00 50 1006.2
20260507215902 63 269 3.0 4.0 0.00 0.10 0.00 51 1006.2
20260507215803 63 327 1.0 4.0 0.00 0.10 0.00 51 1006.2
20260507215702 63 327 1.0 4.0 0.00 0.10 0.00 50 1006.2
20260507215603 63 5 1.0 4.0 0.00 0.10 0.00 48 1006.2
20260507215506 63 5 3.0 4.0 0.00 0.10 0.00 47 1006.2
20260507215402 63 26 2.0 4.0 0.00 0.10 0.00 46 1006.2
20260507215302 63 26 2.0 4.0 0.00 0.10 0.00 46 1006.2
20260507215202 63 33 3.0 4.0 0.00 0.10 0.00 49 1006.1
20260507215102 63 33 2.0 4.0 0.00 0.10 0.00 48 1006.1
20260507215006 63 25 2.0 4.0 0.00 0.10 0.00 48 1006.1
20260507214901 63 24 3.0 4.0 0.00 0.10 0.00 51 1006.2
20260507214802 63 24 1.0 4.0 0.00 0.10 0.00 49 1006.2
20260507214703 62 336 1.0 4.0 0.00 0.10 0.00 49 1006.2
20260507214602 62 336 0.0 4.0 0.00 0.10 0.00 48 1006.2
20260507214505 62 336 2.0 4.0 0.00 0.10 0.00 52 1006.2
20260507214402 62 340 1.0 4.0 0.00 0.10 0.00 47 1006.2
20260507214302 62 340 3.0 4.0 0.00 0.10 0.00 47 1006.2
20260507214202 63 340 3.0 4.0 0.00 0.10 0.00 46 1006.2
20260507214101 63 270 0.0 4.0 0.00 0.10 0.00 48 1006.2
20260507213902 63 270 1.0 5.0 0.00 0.10 0.00 48 1006.2
20260507213803 63 270 1.0 5.0 0.00 0.10 0.00 48 1006.2
20260507213602 63 270 2.0 6.0 0.00 0.10 0.00 48 1006.2
20260507213505 63 5 1.0 6.0 0.00 0.10 0.00 47 1006.2
20260507213303 63 360 1.0 6.0 0.00 0.10 0.00 46 1006.1
20260507213202 63 360 2.0 6.0 0.00 0.10 0.00 49 1006.2
20260507213103 63 360 3.0 6.0 0.00 0.10 0.00 49 1006.2
20260507212902 63 360 3.0 6.0 0.00 0.10 0.00 46 1006.2
20260507212802 63 40 3.0 6.0 0.00 0.10 0.00 49 1006.3
20260507212702 63 285 2.0 3.0 0.00 0.10 0.00 47 1006.3
20260507212601 62 285 2.0 3.0 0.00 0.10 0.00 49 1006.3
20260507212506 62 284 2.0 3.0 0.00 0.10 0.00 50 1006.3
20260507212306 62 27 2.0 5.0 0.00 0.10 0.00 51 1006.3
20260507212202 62 27 2.0 5.0 0.00 0.10 0.00 50 1006.3
20260507212102 62 27 0.0 5.0 0.00 0.10 0.00 48 1006.3
20260507212007 62 27 2.0 5.0 0.00 0.10 0.00 50 1006.2
20260507211903 62 28 2.0 5.0 0.00 0.10 0.00 48 1006.3
20260507211802 62 28 0.0 6.0 0.00 0.10 0.00 50 1006.2
20260507211701 62 28 0.0 6.0 0.00 0.10 0.00 47 1006.2
20260507211602 62 28 1.0 6.0 0.00 0.10 0.00 48 1006.3
20260507211506 62 28 2.0 6.0 0.00 0.10 0.00 48 1006.3
20260507211402 62 28 3.0 6.0 0.00 0.10 0.00 47 1006.3
20260507211302 62 29 3.0 6.0 0.00 0.10 0.00 47 1006.2
20260507211102 63 350 3.0 6.0 0.00 0.10 0.00 48 1006.3
20260507210903 63 11 4.0 6.0 0.00 0.10 0.00 48 1006.2
20260507210801 63 294 2.0 4.0 0.00 0.10 0.00 49 1006.3
20260507210701 63 289 0.0 4.0 0.00 0.10 0.00 47 1006.3
20260507210601 63 289 2.0 4.0 0.00 0.10 0.00 46 1006.2
20260507210505 63 289 2.0 4.0 0.00 0.10 0.00 48 1006.2
20260507210402 64 284 2.0 4.0 0.00 0.10 0.00 48 1006.2
20260507210302 64 281 3.0 4.0 0.00 0.10 0.00 49 1006.3
20260507210202 64 279 1.0 4.0 0.00 0.10 0.00 47 1006.3
20260507210005 64 26 2.0 4.0 0.00 0.10 0.00 46 1006.3
20260507205902 64 26 3.0 5.0 0.00 0.10 0.00 45 1006.3
20260507205801 64 164 1.0 5.0 0.00 0.10 0.00 47 1006.3
20260507205701 64 164 0.0 5.0 0.00 0.10 0.00 46 1006.3
20260507205601 63 164 0.0 5.0 0.00 0.10 0.00 48 1006.3
20260507205506 63 164 2.0 5.0 0.00 0.10 0.00 50 1006.3
20260507205401 63 137 2.0 5.0 0.00 0.10 0.00 50 1006.3
20260507205301 63 137 1.0 5.0 0.00 0.10 0.00 50 1006.3
20260507205100 63 37 1.0 5.0 0.00 0.10 0.00 50 1006.4
20260507205005 63 37 0.0 5.0 0.00 0.10 0.00 50 1006.5
20260507204801 62 53 1.0 3.0 0.00 0.10 0.00 49 1006.5
20260507204702 62 53 2.0 4.0 0.00 0.10 0.00 49 1006.5
20260507204601 62 53 1.0 4.0 0.00 0.10 0.00 49 1006.5
20260507204300 62 53 0.0 6.0 0.00 0.10 0.00 52 1006.4
20260507204200 63 53 0.0 6.0 0.00 0.10 0.00 47 1006.5
20260507204100 63 53 0.0 6.0 0.00 0.10 0.00 46 1006.5
20260507204005 63 53 0.0 6.0 0.00 0.10 0.00 45 1006.5
20260507203800 63 53 4.0 6.0 0.00 0.10 0.00 47 1006.5
20260507203702 63 60 2.0 6.0 0.00 0.10 0.00 47 1006.4
20260507203602 63 61 3.0 6.0 0.00 0.10 0.00 45 1006.4
20260507203505 63 68 3.0 6.0 0.00 0.10 0.00 45 1006.5
20260507203402 63 349 2.0 6.0 0.00 0.10 0.00 46 1006.4
20260507203302 63 355 2.0 6.0 0.00 0.10 0.00 46 1006.5
20260507203201 63 349 4.0 6.0 0.00 0.10 0.00 49 1006.5
20260507203101 63 22 2.0 5.0 0.00 0.10 0.00 48 1006.5
20260507203004 63 22 2.0 5.0 0.00 0.10 0.00 49 1006.5
20260507202901 63 11 2.0 5.0 0.00 0.10 0.00 50 1006.5
20260507202801 63 324 2.0 5.0 0.00 0.10 0.00 53 1006.5
20260507202701 63 324 0.0 5.0 0.00 0.10 0.00 50 1006.6
20260507202603 63 324 1.0 6.0 0.00 0.10 0.00 49 1006.6
20260507202504 63 331 1.0 6.0 0.00 0.10 0.00 47 1006.6
20260507202401 63 331 2.0 6.0 0.00 0.10 0.00 47 1006.6
20260507202306 63 350 1.0 6.0 0.00 0.10 0.00 48 1006.6
20260507202200 63 350 1.0 6.0 0.00 0.10 0.00 48 1006.6
20260507202005 63 27 2.0 10.0 0.00 0.10 0.00 49 1006.6
20260507201900 63 27 2.0 10.0 0.00 0.10 0.00 48 1006.6
20260507201701 63 5 5.0 10.0 0.00 0.10 0.00 49 1006.6
20260507201602 63 75 3.0 10.0 0.00 0.10 0.00 48 1006.6
20260507201505 63 43 2.0 10.0 0.00 0.10 0.00 51 1006.7
20260507201401 63 40 2.0 10.0 0.00 0.10 0.00 51 1006.7
20260507201301 63 28 2.0 10.0 0.00 0.10 0.00 50 1006.7
20260507201202 63 26 2.0 10.0 0.00 0.10 0.00 49 1006.7
20260507201005 63 35 9.0 9.0 0.00 0.10 0.00 49 1006.7
20260507200902 63 355 3.0 9.0 0.00 0.10 0.00 48 1006.7
20260507200801 63 345 2.0 9.0 0.00 0.10 0.00 50 1006.7
20260507200701 63 345 2.0 9.0 0.00 0.10 0.00 48 1006.8
20260507200600 63 340 3.0 9.0 0.00 0.10 0.00 47 1006.8
20260507200505 63 319 1.0 6.0 0.00 0.10 0.00 47 1006.8
20260507200400 63 319 1.0 8.0 0.00 0.10 0.00 48 1006.8
20260507200302 63 355 4.0 10.0 0.00 0.10 0.00 48 1006.8
20260507200201 63 323 1.0 12.0 0.00 0.10 0.00 48 1006.8
20260507200005 63 28 2.0 12.0 0.00 0.10 0.00 49 1006.8
20260507195902 63 30 4.0 12.0 0.00 0.10 0.00 50 1006.8
20260507195801 63 65 3.0 12.0 0.00 0.10 0.00 48 1006.8
20260507195701 63 42 5.0 12.0 0.00 0.10 0.00 49 1006.8
20260507195603 63 40 4.0 12.0 0.00 0.10 0.00 48 1006.8
20260507195505 63 68 4.0 12.0 0.00 0.10 0.00 49 1006.8
20260507195402 63 56 6.0 12.0 0.00 0.10 0.00 48 1006.8
20260507195305 63 9 8.0 12.0 0.00 0.10 0.00 51 1006.8
20260507195201 63 46 4.0 6.0 0.00 0.10 0.00 53 1006.8
20260507195101 63 190 3.0 6.0 0.00 0.10 0.00 51 1006.8
20260507194903 63 234 2.0 6.0 0.00 0.10 0.00 49 1006.8
20260507194703 63 36 4.0 6.0 0.00 0.10 0.00 48 1006.9
20260507194506 63 34 3.0 6.0 0.00 0.10 0.00 49 1007.0
20260507194401 63 58 3.0 6.0 0.00 0.10 0.00 49 1007.0
20260507194301 63 20 2.0 4.0 0.00 0.10 0.00 48 1007.1
20260507194201 63 20 3.0 4.0 0.00 0.10 0.00 52 1007.0
20260507194101 63 20 3.0 4.0 0.00 0.10 0.00 51 1007.0
20260507194005 63 20 1.0 6.0 0.00 0.10 0.00 47 1007.0
20260507193800 63 25 2.0 8.0 0.00 0.10 0.00 49 1007.1
20260507193702 63 25 1.0 8.0 0.00 0.10 0.00 49 1007.1
20260507193601 62 71 1.0 8.0 0.00 0.10 0.00 49 1007.1
20260507193505 62 71 2.0 8.0 0.00 0.10 0.00 49 1007.1
20260507193402 62 10 0.0 8.0 0.00 0.10 0.00 51 1007.2
20260507193202 62 335 3.0 8.0 0.00 0.10 0.00 49 1007.2
20260507193101 62 355 4.0 8.0 0.00 0.10 0.00 49 1007.3
20260507193005 62 28 8.0 8.0 0.00 0.10 0.00 49 1007.4
20260507192901 62 349 4.0 6.0 0.00 0.10 0.00 49 1007.3
20260507192802 63 304 3.0 6.0 0.00 0.10 0.00 47 1007.3
20260507192702 63 306 2.0 6.0 0.00 0.10 0.00 48 1007.3
20260507192600 63 271 3.0 6.0 0.00 0.10 0.00 49 1007.3
20260507192506 63 271 2.0 6.0 0.00 0.10 0.00 49 1007.3
20260507192400 63 271 1.0 6.0 0.00 0.10 0.00 47 1007.3
20260507192305 63 262 1.0 6.0 0.00 0.10 0.00 49 1007.4
20260507192005 63 23 6.0 6.0 0.00 0.10 0.00 48 1007.4
20260507191900 63 322 2.0 6.0 0.00 0.10 0.00 47 1007.4
20260507191800 63 345 3.0 6.0 0.00 0.10 0.00 49 1007.4
20260507191600 63 314 5.0 6.0 0.00 0.10 0.00 49 1007.4
20260507191402 63 332 5.0 6.0 0.00 0.10 0.00 51 1007.3
20260507191302 63 163 2.0 5.0 0.00 0.10 0.00 52 1007.3
20260507191201 63 163 0.0 5.0 0.00 0.10 0.00 53 1007.4
20260507191102 63 163 0.0 5.0 0.00 0.10 0.00 47 1007.4
20260507191005 63 163 2.0 5.0 0.00 0.10 0.00 48 1007.5
20260507190901 63 163 1.0 5.0 0.00 0.10 0.00 46 1007.5
20260507190801 63 155 2.0 5.0 0.00 0.10 0.00 46 1007.5
20260507190701 63 40 1.0 5.0 0.00 0.10 0.00 48 1007.5
20260507190602 63 355 1.0 5.0 0.00 0.10 0.00 51 1007.5
20260507190504 63 49 1.0 5.0 0.00 0.10 0.00 48 1007.5
20260507190402 63 49 3.0 5.0 0.00 0.10 0.00 50 1007.6
20260507190302 63 273 3.0 5.0 0.00 0.10 0.00 54 1007.6
20260507190007 63 273 1.0 13.0 0.00 0.10 0.00 49 1007.7
20260507185902 63 270 4.0 13.0 0.00 0.10 0.00 49 1007.6
20260507185802 63 248 1.0 13.0 0.00 0.10 0.00 48 1007.7
20260507185701 63 248 3.0 13.0 0.00 0.10 0.00 47 1007.6
20260507185602 63 284 2.0 13.0 0.00 0.10 0.00 47 1007.6
20260507185505 63 34 2.0 13.0 0.00 0.10 0.00 47 1007.7
20260507185401 63 337 3.0 13.0 0.00 0.10 0.00 47 1007.7
20260507185305 63 335 2.0 13.0 0.00 0.10 0.00 47 1007.7
20260507185202 63 344 4.0 13.0 0.00 0.10 0.00 50 1007.7
20260507185103 63 321 1.0 13.0 0.00 0.10 0.00 50 1007.7
20260507184903 63 228 1.0 5.0 0.00 0.10 0.00 49 1007.7
20260507184801 63 213 2.0 5.0 0.00 0.10 0.00 50 1007.7
20260507184703 63 209 5.0 5.0 0.00 0.10 0.00 48 1007.7
20260507184602 63 285 4.0 6.0 0.00 0.10 0.00 48 1007.7
20260507184506 63 305 3.0 6.0 0.00 0.10 0.00 49 1007.7
20260507184403 63 265 2.0 6.0 0.00 0.10 0.00 51 1007.7
20260507184302 63 271 1.0 6.0 0.00 0.10 0.00 50 1007.7
20260507184202 63 271 0.0 6.0 0.00 0.10 0.00 49 1007.7
20260507184102 63 271 2.0 9.0 0.00 0.10 0.00 50 1007.7
20260507183602 63 312 2.0 9.0 0.00 0.10 0.00 50 1007.9
20260507183506 63 312 0.0 9.0 0.00 0.10 0.00 50 1007.9
20260507183302 63 319 2.0 9.0 0.00 0.10 0.00 49 1008.0
20260507183102 63 262 2.0 6.0 0.00 0.10 0.00 49 1007.9
20260507182803 63 247 3.0 6.0 0.00 0.10 0.00 47 1007.9
20260507182702 63 244 2.0 6.0 0.00 0.10 0.00 48 1007.9
20260507182602 63 243 3.0 6.0 0.00 0.10 0.00 53 1007.9
20260507182505 62 348 1.0 6.0 0.00 0.10 0.00 49 1008.0
20260507182402 62 355 3.0 6.0 0.00 0.10 0.00 50 1008.0
20260507182306 62 279 3.0 5.0 0.00 0.10 0.00 49 1008.0
20260507182203 62 252 1.0 5.0 0.00 0.10 0.00 51 1008.0
20260507182102 62 252 1.0 5.0 0.00 0.10 0.00 49 1007.9
20260507182007 62 245 2.0 6.0 0.00 0.10 0.00 50 1007.9
20260507181901 62 244 2.0 6.0 0.00 0.10 0.00 49 1008.0
20260507181702 62 247 2.0 6.0 0.00 0.10 0.00 47 1008.0
20260507181601 62 257 4.0 5.0 0.00 0.10 0.00 48 1008.0
20260507181505 62 212 2.0 5.0 0.00 0.10 0.00 50 1008.0
20260507181402 62 212 3.0 5.0 0.00 0.10 0.00 51 1008.0
20260507181302 62 212 2.0 5.0 0.00 0.10 0.00 49 1008.0
20260507181203 62 212 2.0 5.0 0.00 0.10 0.00 49 1008.0
20260507181005 62 248 2.0 5.0 0.00 0.10 0.00 48 1008.1
20260507180901 62 248 2.0 5.0 0.00 0.10 0.00 49 1008.1
20260507180803 62 247 1.0 6.0 0.00 0.10 0.00 50 1008.1
20260507180701 62 247 2.0 8.0 0.00 0.10 0.00 48 1008.1
20260507180601 62 247 3.0 8.0 0.00 0.10 0.00 47 1008.1
20260507180505 62 254 3.0 8.0 0.00 0.10 0.00 46 1008.1
20260507180403 62 255 1.0 8.0 0.00 0.10 0.00 47 1008.2
20260507180301 62 254 3.0 8.0 0.00 0.10 0.00 51 1008.1
20260507180202 62 258 2.0 8.0 0.00 0.10 0.00 51 1008.1
20260507180006 62 336 2.0 8.0 0.00 0.12 0.00 48 1008.1
20260507175702 62 247 2.0 8.0 0.00 0.12 0.00 48 1008.2
20260507175601 62 247 3.0 8.0 0.00 0.12 0.00 50 1008.2
20260507175505 62 246 4.0 8.0 0.00 0.12 0.00 48 1008.2
20260507175402 62 221 3.0 8.0 0.00 0.12 0.00 51 1008.2
20260507175301 62 221 4.0 8.0 0.00 0.12 0.00 50 1008.1
20260507175201 62 255 2.0 8.0 0.00 0.12 0.00 49 1008.1
20260507175102 62 265 3.0 7.0 0.00 0.12 0.00 49 1008.2
20260507174901 62 259 2.0 6.0 0.00 0.12 0.00 48 1008.3
20260507174803 62 259 3.0 6.0 0.00 0.12 0.00 48 1008.2
20260507174701 62 258 3.0 6.0 0.00 0.12 0.00 49 1008.3
20260507174601 62 258 1.0 6.0 0.00 0.12 0.00 47 1008.3
20260507174505 62 259 2.0 6.0 0.00 0.12 0.00 52 1008.3
20260507174301 61 257 2.0 6.0 0.00 0.12 0.00 49 1008.2
20260507174201 61 255 1.0 5.0 0.00 0.12 0.00 49 1008.2
20260507174005 61 51 2.0 5.0 0.00 0.12 0.00 51 1008.3
20260507173900 61 51 2.0 5.0 0.00 0.12 0.00 50 1008.4
20260507173802 62 257 3.0 5.0 0.00 0.12 0.00 49 1008.5
20260507173701 62 257 2.0 5.0 0.00 0.12 0.00 47 1008.4
20260507173602 62 252 4.0 5.0 0.00 0.12 0.00 50 1008.4
20260507173504 62 252 1.0 5.0 0.00 0.12 0.00 51 1008.5
20260507173300 62 248 1.0 5.0 0.00 0.12 0.00 47 1008.5
20260507173202 62 248 4.0 6.0 0.00 0.12 0.00 49 1008.5
20260507172802 62 326 2.0 7.0 0.00 0.12 0.00 52 1008.4
20260507172600 61 262 4.0 7.0 0.00 0.12 0.00 53 1008.5
20260507172505 61 275 1.0 7.0 0.00 0.12 0.00 50 1008.5
20260507172401 61 275 3.0 7.0 0.00 0.12 0.00 51 1008.6
20260507172300 61 290 1.0 7.0 0.00 0.12 0.00 49 1008.6
20260507172202 61 263 3.0 7.0 0.00 0.12 0.00 49 1008.6
20260507172101 61 248 4.0 7.0 0.00 0.12 0.00 50 1008.8
20260507172005 61 234 3.0 7.0 0.00 0.12 0.00 54 1008.8
20260507171901 61 232 3.0 4.0 0.00 0.12 0.00 53 1008.8
20260507171802 61 232 0.0 4.0 0.00 0.12 0.00 52 1008.8
20260507171702 61 232 2.0 4.0 0.00 0.12 0.00 55 1008.9
20260507171602 61 231 0.0 4.0 0.00 0.12 0.00 52 1008.9
20260507171506 61 231 2.0 4.0 0.00 0.12 0.00 56 1008.9
20260507171401 61 231 1.0 4.0 0.00 0.12 0.00 55 1008.9
20260507171301 61 231 0.0 4.0 0.00 0.12 0.00 51 1008.9
20260507171202 61 231 1.0 4.0 0.00 0.12 0.00 52 1009.0
20260507171100 61 231 3.0 4.0 0.00 0.12 0.00 58 1009.0
20260507170901 61 231 2.0 4.0 0.00 0.12 0.00 54 1009.0
20260507170701 60 228 2.0 4.0 0.00 0.12 0.00 56 1009.0
20260507170602 60 228 0.0 4.0 0.00 0.12 0.00 56 1009.1
20260507170504 60 228 1.0 6.0 0.00 0.12 0.00 52 1009.1
20260507170400 60 227 4.0 6.0 0.00 0.12 0.00 54 1009.1
20260507170302 60 227 3.0 6.0 0.00 0.12 0.00 54 1009.1
20260507170202 60 224 3.0 6.0 0.00 0.12 0.00 55 1009.1
20260507170005 60 247 4.0 6.0 0.00 0.12 0.00 51 1009.0
20260507165902 60 244 3.0 6.0 0.00 0.12 0.00 51 1009.1
20260507165701 60 258 2.0 6.0 0.00 0.12 0.00 52 1009.2
20260507165601 60 260 4.0 6.0 0.00 0.12 0.00 52 1009.2
20260507165401 61 261 2.0 5.0 0.00 0.12 0.00 52 1009.1
20260507165301 61 271 1.0 5.0 0.00 0.12 0.00 52 1009.1
20260507165201 61 292 1.0 5.0 0.00 0.12 0.00 53 1009.1
20260507165100 61 292 1.0 5.0 0.00 0.12 0.00 53 1009.2
20260507165006 61 307 1.0 5.0 0.00 0.12 0.00 55 1009.2
20260507164901 61 319 4.0 5.0 0.00 0.12 0.00 54 1009.2
20260507164800 61 252 2.0 5.0 0.00 0.12 0.00 53 1009.2
20260507164701 61 252 2.0 5.0 0.00 0.12 0.00 59 1009.2
20260507164505 60 252 2.0 5.0 0.00 0.12 0.00 52 1009.2
20260507164401 60 252 2.0 4.0 0.00 0.12 0.00 55 1009.2
20260507164201 60 257 2.0 4.0 0.00 0.12 0.00 55 1009.2
20260507164101 60 257 2.0 4.0 0.00 0.12 0.00 53 1009.3
20260507164005 60 257 2.0 6.0 0.00 0.12 0.00 55 1009.4
20260507163902 60 251 3.0 6.0 0.00 0.12 0.00 54 1009.4
20260507163703 60 242 2.0 6.0 0.00 0.12 0.00 59 1009.4
20260507163402 60 244 3.0 6.0 0.00 0.12 0.00 58 1009.4
20260507163301 60 243 0.0 8.0 0.00 0.12 0.00 57 1009.5
20260507163202 60 243 1.0 8.0 0.00 0.12 0.00 53 1009.5
20260507163102 60 243 4.0 8.0 0.00 0.12 0.00 54 1009.5
20260507163006 60 257 2.0 8.0 0.00 0.12 0.00 53 1009.5
20260507162702 59 87 1.0 8.0 0.00 0.12 0.00 60 1009.5
20260507162504 59 172 3.0 8.0 0.00 0.12 0.00 58 1009.6
20260507162401 59 41 4.0 7.0 0.00 0.12 0.00 56 1009.6
20260507162301 59 252 1.0 7.0 0.00 0.12 0.00 53 1009.6
20260507162201 59 252 2.0 7.0 0.00 0.12 0.00 54 1009.6
20260507162103 59 255 2.0 7.0 0.00 0.12 0.00 53 1009.7
20260507162006 59 256 4.0 7.0 0.00 0.12 0.00 56 1009.7
20260507161900 59 256 2.0 7.0 0.00 0.12 0.00 54 1009.8
20260507161800 59 256 1.0 7.0 0.00 0.12 0.00 54 1009.7
20260507161702 59 254 3.0 5.0 0.00 0.12 0.00 55 1009.7
20260507161601 59 246 2.0 5.0 0.00 0.12 0.00 54 1009.8
20260507161401 59 246 3.0 5.0 0.00 0.12 0.00 54 1009.9
20260507161301 59 246 4.0 5.0 0.00 0.12 0.00 55 1009.9
20260507161201 59 225 3.0 5.0 0.00 0.12 0.00 57 1009.9
20260507161101 59 225 2.0 5.0 0.00 0.12 0.00 61 1009.9
20260507161005 59 225 3.0 5.0 0.00 0.12 0.00 54 1009.9
20260507160901 59 215 4.0 6.0 0.00 0.12 0.00 58 1009.9
20260507160802 59 224 2.0 6.0 0.00 0.12 0.00 55 1009.9
20260507160600 59 254 3.0 5.0 0.00 0.12 0.00 55 1009.9
20260507160505 59 250 2.0 5.0 0.00 0.12 0.00 54 1009.9
20260507160400 59 250 5.0 6.0 0.00 0.12 0.00 56 1009.9
20260507160300 59 221 2.0 6.0 0.00 0.12 0.00 55 1009.9
20260507160200 59 324 4.0 5.0 0.00 0.12 0.00 57 1009.9
20260507160006 59 74 3.0 5.0 0.00 0.12 0.00 57 1009.8
20260507155901 59 74 2.0 5.0 0.00 0.16 0.00 57 1009.8
20260507155801 59 26 1.0 5.0 0.00 0.16 0.00 58 1009.9
20260507155602 59 49 2.0 5.0 0.00 0.16 0.00 58 1009.9
20260507155506 59 296 3.0 3.0 0.00 0.16 0.00 55 1009.9
20260507155301 59 333 3.0 4.0 0.00 0.16 0.00 57 1009.8
20260507155200 59 71 2.0 4.0 0.00 0.16 0.00 57 1009.9
20260507155102 59 71 2.0 4.0 0.00 0.16 0.00 60 1009.9
20260507155006 59 272 1.0 4.0 0.00 0.16 0.00 60 1009.9
20260507154900 59 272 3.0 4.0 0.00 0.16 0.00 60 1009.9
20260507154802 59 272 2.0 4.0 0.00 0.16 0.00 64 1009.9
20260507154701 59 258 1.0 4.0 0.00 0.16 0.00 63 1009.9
20260507154601 59 258 2.0 4.0 0.00 0.16 0.00 58 1009.9
20260507154506 59 258 2.0 4.0 0.00 0.16 0.00 60 1009.9
20260507154400 59 258 1.0 4.0 0.00 0.16 0.00 60 1010.0
20260507154301 59 258 1.0 4.0 0.00 0.16 0.00 58 1010.0
20260507154202 59 258 3.0 4.0 0.00 0.16 0.00 57 1010.0
20260507154101 59 254 0.0 4.0 0.00 0.16 0.00 54 1010.0
20260507154006 59 254 3.0 4.0 0.00 0.16 0.00 57 1010.0
20260507153902 59 254 0.0 4.0 0.00 0.16 0.00 55 1010.0
20260507153801 59 274 2.0 4.0 0.00 0.16 0.00 58 1010.0
20260507153659 59 291 1.0 4.0 0.00 0.16 0.00 55 1010.0
20260507153600 59 290 2.0 4.0 0.00 0.16 0.00 54 1010.1
20260507153505 59 290 1.0 4.0 0.00 0.16 0.00 57 1010.1
20260507153400 59 290 2.0 4.0 0.00 0.16 0.00 59 1010.1
20260507153202 59 240 0.0 4.0 0.00 0.16 0.00 54 1010.2
20260507153007 59 240 3.0 4.0 0.00 0.16 0.00 65 1010.3
20260507152901 59 226 2.0 4.0 0.00 0.16 0.00 63 1010.3
20260507152801 59 226 1.0 4.0 0.00 0.16 0.00 59 1010.3
20260507152701 59 175 3.0 5.0 0.00 0.16 0.00 63 1010.3
20260507152602 59 47 3.0 4.0 0.00 0.16 0.00 58 1010.2
20260507152505 59 47 3.0 4.0 0.00 0.16 0.00 60 1010.2
20260507152401 59 346 2.0 4.0 0.00 0.16 0.00 61 1010.2
20260507152300 59 346 3.0 4.0 0.00 0.16 0.00 58 1010.3
20260507152200 59 114 1.0 4.0 0.00 0.16 0.00 58 1010.3
20260507152101 59 114 2.0 5.0 0.00 0.16 0.00 61 1010.3
20260507152005 59 69 2.0 5.0 0.00 0.16 0.00 59 1010.4
20260507151901 59 355 2.0 5.0 0.00 0.16 0.00 59 1010.3
20260507151801 59 245 3.0 5.0 0.00 0.16 0.00 57 1010.3
20260507151702 59 248 4.0 5.0 0.00 0.16 0.00 58 1010.4
20260507151603 58 84 0.0 5.0 0.00 0.16 0.00 56 1010.4
20260507151506 58 84 0.0 5.0 0.00 0.16 0.00 56 1010.4
20260507151400 58 84 1.0 5.0 0.00 0.16 0.00 57 1010.4
20260507151302 58 84 1.0 5.0 0.00 0.16 0.00 55 1010.5
20260507151203 58 84 3.0 6.0 0.00 0.16 0.00 59 1010.6
20260507150901 58 286 1.0 6.0 0.00 0.16 0.00 62 1010.6
20260507150801 58 278 2.0 6.0 0.00 0.16 0.00 60 1010.6
20260507150701 58 14 4.0 6.0 0.00 0.16 0.00 59 1010.7
20260507150601 58 29 1.0 6.0 0.00 0.16 0.00 61 1010.7
20260507150402 57 29 1.0 6.0 0.00 0.16 0.00 58 1010.7
20260507150301 57 360 5.0 6.0 0.00 0.16 0.00 60 1010.6
20260507150200 57 59 2.0 6.0 0.00 0.16 0.00 60 1010.6
20260507150006 57 122 4.0 6.0 0.00 0.29 0.00 60 1010.9
20260507145901 57 121 1.0 6.0 0.00 0.29 0.00 61 1010.8
20260507145801 57 147 3.0 6.0 0.00 0.29 0.00 59 1010.8
20260507145701 57 69 4.0 6.0 0.00 0.29 0.00 57 1010.9
20260507145600 57 329 3.0 6.0 0.00 0.29 0.00 57 1010.9
20260507145506 57 327 4.0 7.0 0.00 0.29 0.00 56 1010.8
20260507145301 58 286 2.0 5.0 0.00 0.29 0.00 59 1010.9
20260507145201 58 317 3.0 5.0 0.00 0.29 0.00 58 1010.9
20260507145101 58 47 3.0 4.0 0.00 0.29 0.00 58 1010.9
20260507145007 58 207 1.0 4.0 0.00 0.29 0.00 58 1010.9
20260507144900 58 200 1.0 3.0 0.00 0.29 0.00 60 1010.9
20260507144803 58 150 2.0 3.0 0.00 0.29 0.00 61 1010.9
20260507144701 57 100 0.0 3.0 0.00 0.29 0.00 60 1010.9
20260507144603 57 100 1.0 3.0 0.00 0.29 0.00 57 1011.0
20260507144505 57 100 1.0 3.0 0.00 0.29 0.00 58 1011.0
20260507144301 57 100 2.0 9.0 0.00 0.29 0.00 61 1011.0
20260507144201 57 100 1.0 9.0 0.00 0.29 0.00 63 1011.1
20260507144102 57 100 2.0 9.0 0.00 0.29 0.00 66 1011.1
20260507144006 56 101 0.0 9.0 0.00 0.29 0.00 62 1011.0
20260507143802 56 281 1.0 9.0 0.00 0.29 0.00 65 1011.1
20260507143701 56 281 0.0 9.0 0.00 0.29 0.00 60 1011.1
20260507143603 56 281 2.0 9.0 0.00 0.29 0.00 60 1011.1
20260507143505 56 281 3.0 9.0 0.00 0.29 0.00 57 1011.1
20260507143400 56 65 5.0 9.0 0.00 0.29 0.00 59 1011.1
20260507143301 56 38 5.0 9.0 0.00 0.29 0.00 59 1011.1
20260507143202 56 180 2.0 9.0 0.00 0.29 0.00 58 1011.2
20260507142900 56 31 3.0 9.0 0.00 0.29 0.00 56 1011.2
20260507142801 56 38 1.0 10.0 0.00 0.29 0.00 58 1011.2
20260507142701 56 28 8.0 11.0 0.00 0.29 0.00 56 1011.2
20260507142602 56 309 4.0 11.0 0.00 0.29 0.00 55 1011.2
20260507142505 56 355 2.0 11.0 0.00 0.29 0.00 57 1011.2
20260507142401 55 355 0.0 11.0 0.00 0.29 0.00 56 1011.2
20260507142301 55 355 1.0 11.0 0.00 0.29 0.00 60 1011.3
20260507142200 55 355 4.0 11.0 0.00 0.29 0.00 59 1011.3
20260507142005 56 346 3.0 11.0 0.00 0.29 0.00 59 1011.4
20260507141801 56 88 8.0 11.0 0.00 0.29 0.00 60 1011.4
20260507141702 56 22 5.0 11.0 0.00 0.29 0.00 59 1011.3
20260507141602 55 33 2.0 11.0 0.00 0.29 0.00 59 1011.3
20260507141505 55 5 4.0 11.0 0.00 0.29 0.00 56 1011.3
20260507141401 56 25 5.0 11.0 0.00 0.29 0.00 57 1011.4
20260507141302 56 36 4.0 10.0 0.00 0.29 0.00 60 1011.4
20260507141201 56 31 6.0 9.0 0.00 0.29 0.00 59 1011.4
20260507141101 56 23 5.0 9.0 0.00 0.29 0.00 60 1011.4
20260507141007 56 355 5.0 9.0 0.00 0.29 0.00 59 1011.4
20260507140901 56 355 6.0 9.0 0.00 0.29 0.00 59 1011.4
20260507140801 56 355 1.0 9.0 0.00 0.29 0.00 60 1011.4
20260507140701 56 355 3.0 9.0 0.00 0.29 0.00 59 1011.4
20260507140600 56 19 2.0 9.0 0.00 0.29 0.00 59 1011.4
20260507140505 56 13 2.0 9.0 0.00 0.29 0.00 60 1011.4
20260507140403 55 360 6.0 9.0 0.00 0.29 0.00 58 1011.5
20260507140301 55 325 3.0 9.0 0.00 0.29 0.00 61 1011.5
20260507140202 55 300 2.0 9.0 0.00 0.29 0.00 62 1011.5
20260507140001 55 49 2.0 9.0 0.00 0.34 0.00 62 1011.5
20260507135800 55 5 5.0 9.0 0.00 0.34 0.00 61 1011.5
20260507135700 55 5 3.0 9.0 0.00 0.34 0.00 60 1011.6
20260507135600 55 5 2.0 9.0 0.00 0.34 0.00 60 1011.6
20260507135505 55 355 5.0 9.0 0.00 0.34 0.00 61 1011.5
20260507135401 55 348 1.0 8.0 0.00 0.34 0.00 61 1011.6
20260507135300 55 337 1.0 8.0 0.00 0.34 0.00 61 1011.6
20260507135201 55 355 3.0 8.0 0.00 0.34 0.00 62 1011.6
20260507135007 55 317 0.0 5.0 0.00 0.34 0.00 61 1011.6
20260507134900 55 317 2.0 5.0 0.00 0.34 0.00 63 1011.5
20260507134800 55 241 5.0 5.0 0.00 0.34 0.00 66 1011.6
20260507134700 55 9 2.0 5.0 0.00 0.34 0.00 61 1011.6
20260507134601 55 355 3.0 5.0 0.00 0.34 0.00 62 1011.6
20260507134401 55 265 2.0 5.0 0.00 0.34 0.00 61 1011.6
20260507134300 55 258 2.0 5.0 0.00 0.34 0.00 62 1011.6
20260507134200 55 311 3.0 5.0 0.00 0.34 0.00 62 1011.6
20260507134101 55 329 3.0 5.0 0.00 0.34 0.00 63 1011.6
20260507134007 55 346 3.0 5.0 0.00 0.34 0.00 64 1011.6
20260507133802 55 305 3.0 6.0 0.00 0.34 0.00 63 1011.5
20260507133700 55 355 4.0 6.0 0.00 0.34 0.00 65 1011.5
20260507133601 55 132 3.0 6.0 0.00 0.34 0.00 63 1011.6
20260507133505 55 57 2.0 6.0 0.00 0.34 0.00 65 1011.6
20260507133400 55 57 2.0 6.0 0.00 0.34 0.00 64 1011.6
20260507133300 54 67 2.0 6.0 0.00 0.34 0.00 64 1011.7
20260507133159 54 71 3.0 6.0 0.00 0.34 0.00 64 1011.7
20260507133100 54 33 3.0 6.0 0.00 0.34 0.00 63 1011.7
20260507133005 54 5 2.0 6.0 0.00 0.34 0.00 64 1011.8
20260507132900 54 5 5.0 5.0 0.00 0.34 0.00 66 1011.7
20260507132800 54 277 2.0 5.0 0.00 0.34 0.00 66 1011.7
20260507132700 54 50 4.0 5.0 0.00 0.34 0.00 68 1011.7
20260507132600 54 251 1.0 5.0 0.00 0.34 0.00 68 1011.7
20260507132300 54 250 2.0 5.0 0.00 0.34 0.00 64 1011.6
20260507132200 53 250 2.0 5.0 0.00 0.34 0.00 65 1011.7
20260507132100 53 253 3.0 5.0 0.00 0.34 0.00 64 1011.7
20260507132004 53 319 4.0 4.0 0.00 0.34 0.00 65 1011.6
20260507131859 53 250 2.0 4.0 0.00 0.34 0.00 65 1011.6
20260507131800 53 275 1.0 6.0 0.00 0.34 0.00 65 1011.6
20260507131700 53 26 2.0 6.0 0.00 0.34 0.00 66 1011.6
20260507131559 53 26 1.0 6.0 0.00 0.34 0.00 66 1011.7
20260507131359 53 26 1.0 6.0 0.00 0.34 0.00 64 1011.6
20260507131300 53 26 1.0 6.0 0.00 0.34 0.00 65 1011.6
20260507131200 53 26 0.0 6.0 0.00 0.34 0.00 66 1011.6
20260507131100 53 26 1.0 6.0 0.00 0.34 0.00 66 1011.6
20260507130900 53 28 3.0 6.0 0.00 0.34 0.00 66 1011.6
20260507130800 53 28 1.0 5.0 0.00 0.34 0.00 66 1011.6
20260507130659 53 28 1.0 5.0 0.00 0.34 0.00 65 1011.6
20260507130602 53 28 1.0 5.0 0.00 0.34 0.00 65 1011.6
20260507130505 53 355 4.0 4.0 0.00 0.34 0.00 67 1011.5
20260507130359 53 355 2.0 4.0 0.00 0.34 0.00 68 1011.5
20260507130200 53 342 1.0 4.0 0.00 0.34 0.00 66 1011.4
20260507130059 53 342 1.0 4.0 0.00 0.34 0.00 65 1011.5
20260507130005 53 342 3.0 4.0 0.00 0.38 0.00 67 1011.5
20260507125901 53 343 2.0 4.0 0.00 0.38 0.00 66 1011.5
20260507125700 53 338 3.0 4.0 0.00 0.38 0.00 66 1011.5
20260507125600 53 272 2.0 4.0 0.00 0.38 0.00 66 1011.5
20260507125504 53 272 2.0 4.0 0.00 0.38 0.00 66 1011.5
20260507125400 53 271 1.0 4.0 0.00 0.38 0.00 66 1011.5
20260507125200 53 304 2.0 4.0 0.00 0.38 0.00 66 1011.6
20260507125059 53 304 3.0 4.0 0.00 0.38 0.00 67 1011.6
20260507125005 53 304 2.0 4.0 0.00 0.38 0.00 68 1011.6
20260507124900 53 304 1.0 4.0 0.00 0.38 0.00 67 1011.6
20260507124800 53 304 0.0 4.0 0.00 0.38 0.00 66 1011.6
20260507124700 53 304 1.0 4.0 0.00 0.38 0.00 66 1011.7
20260507124600 53 294 4.0 4.0 0.00 0.38 0.00 68 1011.6
20260507124505 53 293 2.0 4.0 0.00 0.38 0.00 68 1011.7
20260507124300 53 288 1.0 3.0 0.00 0.38 0.00 69 1011.6
20260507124200 53 288 2.0 6.0 0.00 0.38 0.00 68 1011.7
20260507124101 53 288 2.0 6.0 0.00 0.38 0.00 67 1011.7
20260507124005 53 288 1.0 6.0 0.00 0.38 0.00 67 1011.6
20260507123900 53 288 2.0 6.0 0.00 0.38 0.00 68 1011.6
20260507123800 53 26 2.0 6.0 0.00 0.38 0.00 67 1011.6
20260507123600 52 26 2.0 6.0 0.00 0.38 0.00 68 1011.7
20260507123505 52 28 1.0 6.0 0.00 0.38 0.00 66 1011.7
20260507123300 52 27 3.0 6.0 0.00 0.38 0.00 68 1011.7
20260507123200 52 32 1.0 6.0 0.00 0.38 0.00 67 1011.7
20260507123100 52 32 1.0 6.0 0.00 0.38 0.00 70 1011.7
20260507123005 52 34 1.0 6.0 0.00 0.38 0.00 68 1011.7
20260507122900 52 34 1.0 6.0 0.00 0.38 0.00 66 1011.7
20260507122801 52 34 1.0 6.0 0.00 0.38 0.00 66 1011.8
20260507122559 52 9 3.0 6.0 0.00 0.38 0.00 66 1011.7
20260507122259 52 61 2.0 4.0 0.00 0.38 0.00 66 1011.7
20260507122159 51 61 1.0 4.0 0.00 0.38 0.00 67 1011.7
20260507122100 51 69 3.0 4.0 0.00 0.38 0.00 69 1011.7
20260507122005 51 71 2.0 3.0 0.00 0.38 0.00 68 1011.7
20260507121859 51 72 1.0 3.0 0.00 0.38 0.00 70 1011.7
20260507121800 51 72 1.0 3.0 0.00 0.38 0.00 69 1011.7
20260507121659 51 72 2.0 3.0 0.00 0.38 0.00 70 1011.7
20260507121600 51 124 2.0 5.0 0.00 0.38 0.00 70 1011.7
20260507121504 51 127 1.0 5.0 0.00 0.38 0.00 70 1011.7
20260507121400 50 128 1.0 5.0 0.00 0.38 0.00 70 1011.7
20260507121300 50 128 1.0 5.0 0.00 0.38 0.00 68 1011.7
20260507121201 50 128 2.0 5.0 0.00 0.38 0.00 70 1011.7
20260507121101 50 127 2.0 5.0 0.00 0.38 0.00 70 1011.6
20260507120801 50 128 1.0 5.0 0.00 0.38 0.00 69 1011.6
20260507120700 50 133 2.0 5.0 0.00 0.38 0.00 69 1011.6
20260507120600 50 164 2.0 5.0 0.00 0.38 0.00 68 1011.6
20260507120505 50 73 1.0 5.0 0.00 0.38 0.00 69 1011.6
20260507120359 50 48 2.0 5.0 0.00 0.38 0.00 69 1011.6
20260507120259 50 12 3.0 5.0 0.00 0.38 0.00 69 1011.6
20260507120201 50 51 1.0 4.0 0.00 0.38 0.00 70 1011.6
20260507120059 50 51 0.0 5.0 0.00 0.38 0.00 68 1011.6
20260507120006 50 51 1.0 5.0 0.00 0.38 0.00 68 1011.6
20260507115900 50 53 0.0 5.0 0.00 0.41 0.00 68 1011.6
20260507115801 50 53 2.0 5.0 0.00 0.41 0.00 69 1011.6
20260507115701 50 51 1.0 5.0 0.00 0.41 0.00 68 1011.6
20260507115506 50 62 3.0 5.0 0.00 0.41 0.00 69 1011.6
20260507115102 50 49 3.0 4.0 0.00 0.41 0.00 68 1011.6
20260507115005 50 54 3.0 4.0 0.00 0.41 0.00 68 1011.6
20260507114901 50 33 2.0 4.0 0.00 0.41 0.00 68 1011.6
20260507114801 50 26 2.0 4.0 0.00 0.41 0.00 67 1011.6
20260507114701 50 26 2.0 8.0 0.00 0.41 0.00 67 1011.6
20260507114601 50 28 3.0 8.0 0.00 0.41 0.00 68 1011.6
20260507114505 50 5 1.0 8.0 0.00 0.41 0.00 67 1011.6
20260507114400 50 5 2.0 8.0 0.00 0.41 0.00 67 1011.6
20260507114300 50 5 2.0 8.0 0.00 0.41 0.00 67 1011.5
20260507114201 50 52 3.0 8.0 0.00 0.41 0.00 68 1011.5
20260507114101 49 55 3.0 8.0 0.00 0.41 0.00 67 1011.6
20260507114006 49 46 3.0 8.0 0.00 0.41 0.00 68 1011.5
20260507113901 49 57 2.0 8.0 0.00 0.41 0.00 68 1011.5
20260507113800 49 5 3.0 6.0 0.00 0.41 0.00 69 1011.5
20260507113700 49 84 2.0 6.0 0.00 0.41 0.00 68 1011.4
20260507113601 49 90 2.0 6.0 0.00 0.41 0.00 68 1011.5
20260507113402 49 23 1.0 6.0 0.00 0.41 0.00 67 1011.4
20260507113301 49 22 3.0 6.0 0.00 0.41 0.00 67 1011.4
20260507113102 49 355 3.0 6.0 0.00 0.41 0.00 68 1011.4
20260507113006 49 5 4.0 6.0 0.00 0.41 0.00 68 1011.4
20260507112802 49 299 0.0 4.0 0.00 0.41 0.00 68 1011.4
20260507112701 49 299 0.0 4.0 0.00 0.41 0.00 68 1011.4
20260507112602 49 299 0.0 4.0 0.00 0.41 0.00 67 1011.4
20260507112505 49 299 2.0 4.0 0.00 0.41 0.00 66 1011.4
20260507112402 49 300 2.0 6.0 0.00 0.41 0.00 67 1011.4
20260507112301 49 65 0.0 8.0 0.00 0.41 0.00 67 1011.4
20260507112201 49 65 0.0 8.0 0.00 0.41 0.00 68 1011.4
20260507112101 49 65 0.0 8.0 0.00 0.41 0.00 68 1011.4
20260507112005 49 65 0.0 8.0 0.00 0.41 0.00 68 1011.4
20260507111902 49 65 0.0 8.0 0.00 0.41 0.00 67 1011.4
20260507111801 49 65 1.0 8.0 0.00 0.41 0.00 67 1011.4
20260507111700 49 71 3.0 8.0 0.00 0.41 0.00 67 1011.4
20260507111601 49 84 2.0 8.0 0.00 0.41 0.00 66 1011.4
20260507111506 49 57 2.0 8.0 0.00 0.41 0.00 66 1011.4
20260507111401 49 34 3.0 6.0 0.00 0.41 0.00 67 1011.4
20260507111200 49 335 0.0 6.0 0.00 0.41 0.00 66 1011.4
20260507111007 49 36 1.0 9.0 0.00 0.41 0.00 67 1011.4
20260507110901 49 38 4.0 9.0 0.00 0.41 0.00 66 1011.4
20260507110601 49 32 2.0 9.0 0.00 0.41 0.00 66 1011.3
20260507110505 49 44 4.0 9.0 0.00 0.41 0.00 66 1011.3
20260507110400 49 44 2.0 9.0 0.00 0.41 0.00 66 1011.3
20260507110301 49 360 1.0 9.0 0.00 0.41 0.00 66 1011.3
20260507110201 49 355 4.0 9.0 0.00 0.41 0.00 66 1011.3
20260507110005 49 12 5.0 6.0 0.00 0.41 0.00 67 1011.2
20260507105902 49 12 3.0 6.0 0.00 0.41 0.00 66 1011.2
20260507105702 49 12 2.0 6.0 0.00 0.41 0.00 65 1011.2
20260507105609 49 12 2.0 6.0 0.00 0.41 0.00 65 1011.1
20260507105506 49 12 3.0 6.0 0.00 0.41 0.00 66 1011.1
20260507105401 49 29 3.0 6.0 0.00 0.41 0.00 66 1011.0
20260507105301 49 26 3.0 6.0 0.00 0.41 0.00 66 1011.0
20260507105201 49 55 6.0 6.0 0.00 0.41 0.00 66 1011.0
20260507105101 49 275 2.0 3.0 0.00 0.41 0.00 66 1010.9
20260507105005 49 270 1.0 3.0 0.00 0.41 0.00 66 1010.9
20260507104900 49 270 2.0 3.0 0.00 0.41 0.00 66 1010.9
20260507104803 49 270 1.0 3.0 0.00 0.41 0.00 66 1010.9
20260507104701 49 270 2.0 8.0 0.00 0.41 0.00 65 1010.9
20260507104600 49 270 1.0 8.0 0.00 0.41 0.00 66 1010.9
20260507104506 49 270 1.0 8.0 0.00 0.41 0.00 66 1010.9
20260507104400 49 270 0.0 8.0 0.00 0.41 0.00 66 1010.9
20260507104202 49 270 0.0 8.0 0.00 0.41 0.00 66 1010.9
20260507104100 49 270 1.0 8.0 0.00 0.41 0.00 65 1010.8
20260507104007 49 269 3.0 8.0 0.00 0.41 0.00 65 1010.9
20260507103903 49 5 2.0 8.0 0.00 0.41 0.00 64 1010.9
20260507103802 49 5 4.0 8.0 0.00 0.41 0.00 65 1010.8
20260507103701 49 351 2.0 8.0 0.00 0.41 0.00 64 1010.9
20260507103600 49 313 2.0 8.0 0.00 0.41 0.00 64 1010.9
20260507103505 49 53 2.0 6.0 0.00 0.41 0.00 65 1010.8
20260507103301 49 344 1.0 8.0 0.00 0.41 0.00 65 1010.8
20260507103200 49 335 3.0 9.0 0.00 0.41 0.00 66 1010.6
20260507103100 49 334 0.0 9.0 0.00 0.41 0.00 65 1010.6
20260507103006 49 334 1.0 9.0 0.00 0.41 0.00 64 1010.6
20260507102900 49 334 1.0 9.0 0.00 0.41 0.00 64 1010.6
20260507102801 49 334 2.0 9.0 0.00 0.41 0.00 64 1010.6
20260507102701 49 286 2.0 9.0 0.00 0.41 0.00 64 1010.5
20260507102602 49 103 2.0 9.0 0.00 0.41 0.00 64 1010.6
20260507102504 49 5 6.0 9.0 0.00 0.41 0.00 65 1010.6
20260507102402 49 22 4.0 9.0 0.00 0.41 0.00 65 1010.6
20260507102300 49 17 5.0 6.0 0.00 0.41 0.00 65 1010.6
20260507102202 49 39 1.0 5.0 0.00 0.41 0.00 66 1010.6
20260507102102 49 28 0.0 5.0 0.00 0.41 0.00 66 1010.5
20260507101701 49 24 1.0 5.0 0.00 0.41 0.00 65 1010.5
20260507101401 50 26 2.0 5.0 0.00 0.41 0.00 67 1010.4
20260507101302 50 26 1.0 5.0 0.00 0.41 0.00 66 1010.4
20260507101202 49 26 0.0 5.0 0.00 0.41 0.00 65 1010.3
20260507101100 49 26 2.0 5.0 0.00 0.41 0.00 66 1010.3
20260507100903 49 26 1.0 5.0 0.00 0.41 0.00 66 1010.3
20260507100801 49 26 2.0 5.0 0.00 0.41 0.00 65 1010.3
20260507100702 49 27 5.0 5.0 0.00 0.41 0.00 65 1010.3
20260507100601 49 36 1.0 5.0 0.00 0.41 0.00 65 1010.3
20260507100301 49 36 1.0 5.0 0.00 0.41 0.00 66 1010.3
20260507100202 49 38 5.0 5.0 0.00 0.41 0.00 66 1010.3
20260507100005 50 24 0.0 6.0 0.00 0.41 0.00 67 1010.2
20260507095803 50 24 0.0 6.0 0.00 0.41 0.00 67 1010.2
20260507095702 50 24 0.0 6.0 0.00 0.41 0.00 67 1010.2
20260507095602 50 24 0.0 6.0 0.00 0.41 0.00 65 1010.2
20260507095505 50 24 0.0 6.0 0.00 0.41 0.00 65 1010.1
20260507095400 50 24 0.0 6.0 0.00 0.41 0.00 65 1010.1
20260507095259 50 24 0.0 6.0 0.00 0.41 0.00 66 1010.1
20260507095159 50 24 1.0 6.0 0.00 0.41 0.00 67 1010.1
20260507095059 50 32 1.0 3.0 0.00 0.41 0.00 67 1010.0
20260507094859 50 312 3.0 3.0 0.00 0.41 0.00 67 1010.1
20260507094800 50 312 0.0 3.0 0.00 0.41 0.00 65 1010.1
20260507094700 50 312 0.0 3.0 0.00 0.41 0.00 66 1010.1
20260507094601 50 312 2.0 3.0 0.00 0.41 0.00 66 1010.1
20260507094505 50 312 0.0 3.0 0.00 0.41 0.00 65 1010.1
20260507094359 50 312 2.0 5.0 0.00 0.41 0.00 65 1010.1
20260507094259 50 312 0.0 6.0 0.00 0.41 0.00 65 1010.1
20260507094159 50 312 1.0 6.0 0.00 0.41 0.00 65 1010.1
20260507094100 50 312 2.0 6.0 0.00 0.41 0.00 65 1010.1
20260507094005 50 312 0.0 6.0 0.00 0.41 0.00 65 1010.1
20260507093901 50 312 0.0 6.0 0.00 0.41 0.00 65 1010.1
20260507093800 50 312 1.0 6.0 0.00 0.41 0.00 65 1010.1
20260507093701 50 312 1.0 6.0 0.00 0.41 0.00 66 1010.0
20260507093600 50 312 2.0 6.0 0.00 0.41 0.00 65 1010.0
20260507093505 50 312 3.0 6.0 0.00 0.41 0.00 65 1010.1
20260507093300 50 22 4.0 4.0 0.00 0.41 0.00 66 1010.0
20260507093159 50 324 1.0 4.0 0.00 0.41 0.00 67 1009.9
20260507093102 50 323 1.0 4.0 0.00 0.41 0.00 66 1009.8
20260507093006 50 324 1.0 4.0 0.00 0.41 0.00 66 1009.8
20260507092859 50 323 1.0 4.0 0.00 0.41 0.00 66 1009.8
20260507092800 50 323 0.0 4.0 0.00 0.41 0.00 66 1009.8
20260507092659 50 323 1.0 4.0 0.00 0.41 0.00 65 1009.9
20260507092502 50 313 3.0 4.0 0.00 0.41 0.00 66 1009.9
20260507092400 50 313 2.0 5.0 0.00 0.41 0.00 66 1009.8
20260507092259 50 313 1.0 5.0 0.00 0.41 0.00 66 1009.8
20260507092005 50 313 2.0 5.0 0.00 0.41 0.00 65 1009.8
20260507091900 50 313 0.0 5.0 0.00 0.41 0.00 65 1009.8
20260507091800 50 313 1.0 5.0 0.00 0.41 0.00 64 1009.8
20260507091700 50 313 3.0 5.0 0.00 0.41 0.00 65 1009.7
20260507091600 50 319 4.0 5.0 0.00 0.41 0.00 65 1009.8
20260507091505 50 317 3.0 9.0 0.00 0.41 0.00 66 1009.7
20260507091400 50 309 1.0 9.0 0.00 0.41 0.00 65 1009.7
20260507091300 50 307 2.0 9.0 0.00 0.41 0.00 66 1009.7
20260507091200 50 307 3.0 9.0 0.00 0.41 0.00 65 1009.7
20260507091100 50 306 1.0 9.0 0.00 0.41 0.00 65 1009.8
20260507091004 50 304 1.0 9.0 0.00 0.41 0.00 65 1009.8
20260507090700 50 355 1.0 9.0 0.00 0.41 0.00 65 1009.8
20260507090505 50 259 3.0 4.0 0.00 0.41 0.00 66 1009.8
20260507090301 50 257 1.0 4.0 0.00 0.41 0.00 65 1009.8
20260507090201 50 257 0.0 4.0 0.00 0.41 0.00 66 1009.9
20260507090100 50 257 0.0 7.0 0.00 0.41 0.00 66 1009.9
20260507090006 50 257 0.0 7.0 0.00 0.41 0.00 66 1009.8
20260507085901 50 257 2.0 7.0 0.00 0.41 0.00 66 1009.7
20260507085800 50 254 1.0 7.0 0.00 0.41 0.00 66 1009.8
20260507085702 50 253 2.0 7.0 0.00 0.41 0.00 66 1009.7
20260507085600 50 253 1.0 7.0 0.00 0.41 0.00 65 1009.7
20260507085401 50 253 1.0 7.0 0.00 0.41 0.00 66 1009.7
20260507085301 50 253 2.0 7.0 0.00 0.41 0.00 65 1009.7
20260507085201 50 253 2.0 7.0 0.00 0.41 0.00 66 1009.7
20260507085007 50 43 1.0 7.0 0.00 0.41 0.00 66 1009.7
20260507084900 50 43 2.0 7.0 0.00 0.41 0.00 65 1009.7
20260507084800 50 40 2.0 7.0 0.00 0.41 0.00 65 1009.6
20260507084700 50 40 1.0 7.0 0.00 0.41 0.00 65 1009.6
20260507084601 50 40 4.0 8.0 0.00 0.41 0.00 66 1009.7
20260507084505 50 266 1.0 4.0 0.00 0.41 0.00 67 1009.6
20260507084400 50 259 0.0 4.0 0.00 0.41 0.00 67 1009.7
20260507084201 50 279 1.0 4.0 0.00 0.41 0.00 65 1009.7
20260507084101 51 276 0.0 5.0 0.00 0.41 0.00 65 1009.7
20260507084005 51 20 2.0 5.0 0.00 0.41 0.00 65 1009.7
20260507083900 51 23 2.0 5.0 0.00 0.41 0.00 66 1009.7
20260507083800 51 23 0.0 5.0 0.00 0.41 0.00 67 1009.7
20260507083701 51 23 1.0 5.0 0.00 0.41 0.00 66 1009.7
20260507083600 51 23 0.0 5.0 0.00 0.41 0.00 65 1009.7
20260507083504 51 23 1.0 5.0 0.00 0.41 0.00 64 1009.7
20260507083401 51 23 1.0 5.0 0.00 0.41 0.00 65 1009.7
20260507083102 51 19 1.0 4.0 0.00 0.41 0.00 64 1009.7
20260507083006 51 19 1.0 4.0 0.00 0.41 0.00 64 1009.7
20260507082900 51 19 2.0 4.0 0.00 0.41 0.00 65 1009.7
20260507082801 51 19 1.0 4.0 0.00 0.41 0.00 66 1009.8
20260507082701 51 19 1.0 4.0 0.00 0.41 0.00 65 1009.7
20260507082600 51 19 0.0 4.0 0.00 0.41 0.00 65 1009.8
20260507082505 51 19 0.0 4.0 0.00 0.41 0.00 65 1009.7
20260507082359 51 19 3.0 4.0 0.00 0.41 0.00 65 1009.7
20260507082301 51 5 3.0 6.0 0.00 0.41 0.00 64 1009.7
20260507082201 51 5 3.0 6.0 0.00 0.41 0.00 64 1009.7
20260507082101 51 5 1.0 6.0 0.00 0.41 0.00 65 1009.7
20260507082005 51 5 2.0 6.0 0.00 0.41 0.00 65 1009.7
20260507081900 51 5 0.0 6.0 0.00 0.41 0.00 66 1009.7
20260507081803 51 5 3.0 6.0 0.00 0.41 0.00 67 1009.8
20260507081701 51 5 1.0 6.0 0.00 0.41 0.00 68 1009.8
20260507081601 51 5 0.0 6.0 0.00 0.41 0.00 67 1009.8
20260507081505 51 5 2.0 6.0 0.00 0.41 0.00 65 1009.9
20260507081301 51 65 0.0 3.0 0.00 0.41 0.00 64 1009.8
20260507081201 51 65 1.0 3.0 0.00 0.41 0.00 65 1009.8
20260507081100 51 65 1.0 9.0 0.00 0.41 0.00 66 1009.8
20260507081006 51 65 0.0 9.0 0.00 0.41 0.00 66 1009.8
20260507080901 51 65 2.0 9.0 0.00 0.41 0.00 64 1009.8
20260507080601 51 342 1.0 9.0 0.00 0.41 0.00 64 1009.8
20260507080505 51 342 0.0 9.0 0.00 0.41 0.00 64 1009.7
20260507080401 51 342 2.0 9.0 0.00 0.41 0.00 63 1009.8
20260507080302 51 341 2.0 9.0 0.00 0.41 0.00 63 1009.7
20260507080201 51 341 1.0 9.0 0.00 0.41 0.00 64 1009.7
20260507080100 51 13 3.0 7.0 0.00 0.41 0.00 65 1009.7
20260507080007 51 306 1.0 5.0 0.00 0.41 0.00 65 1009.8
20260507075801 51 5 1.0 8.0 0.00 0.41 0.00 66 1009.8
20260507075702 51 5 0.0 8.0 0.00 0.41 0.00 64 1009.8
20260507075601 51 5 0.0 8.0 0.00 0.41 0.00 64 1009.8
20260507075504 51 5 0.0 8.0 0.00 0.41 0.00 64 1009.8
20260507075401 51 5 3.0 8.0 0.00 0.41 0.00 64 1009.8
20260507075202 51 11 3.0 8.0 0.00 0.41 0.00 63 1009.8
20260507075005 52 12 2.0 8.0 0.00 0.41 0.00 65 1009.8
20260507074901 52 13 2.0 8.0 0.00 0.41 0.00 65 1009.8
20260507074800 52 360 5.0 6.0 0.00 0.41 0.00 65 1009.8
20260507074700 52 242 1.0 6.0 0.00 0.41 0.00 65 1009.8
20260507074601 52 242 2.0 6.0 0.00 0.41 0.00 65 1009.8
20260507074505 52 349 2.0 6.0 0.00 0.41 0.00 64 1009.8
20260507074402 52 5 1.0 6.0 0.00 0.41 0.00 65 1009.9
20260507074301 52 5 2.0 6.0 0.00 0.41 0.00 64 1010.0
20260507074201 52 5 6.0 6.0 0.00 0.41 0.00 65 1010.0
20260507074005 52 327 0.0 6.0 0.00 0.41 0.00 65 1010.0
20260507073802 52 37 4.0 6.0 0.00 0.41 0.00 65 1010.0
20260507073701 52 16 1.0 6.0 0.00 0.41 0.00 65 1010.0
20260507073600 52 360 2.0 6.0 0.00 0.41 0.00 66 1010.0
20260507073505 52 360 2.0 6.0 0.00 0.41 0.00 67 1010.0
20260507073401 52 306 1.0 5.0 0.00 0.41 0.00 67 1010.0
20260507073301 52 306 0.0 5.0 0.00 0.41 0.00 66 1010.0
20260507073100 52 306 0.0 5.0 0.00 0.41 0.00 66 1009.9
20260507073006 52 306 2.0 8.0 0.00 0.41 0.00 66 1009.9
20260507072801 52 277 2.0 8.0 0.00 0.41 0.00 65 1009.9
20260507072700 52 310 4.0 8.0 0.00 0.41 0.00 66 1009.9
20260507072600 52 21 1.0 8.0 0.00 0.41 0.00 66 1009.8
20260507072505 52 21 1.0 8.0 0.00 0.41 0.00 65 1009.9
20260507072301 52 26 3.0 8.0 0.00 0.41 0.00 66 1009.8
20260507072201 52 9 1.0 8.0 0.00 0.41 0.00 65 1009.8
20260507072102 52 9 3.0 8.0 0.00 0.41 0.00 65 1009.8
20260507072005 52 30 6.0 6.0 0.00 0.41 0.00 67 1009.8
20260507071900 52 10 3.0 6.0 0.00 0.41 0.00 66 1009.8
20260507071801 52 300 0.0 6.0 0.00 0.41 0.00 66 1009.8
20260507071702 52 300 1.0 6.0 0.00 0.41 0.00 65 1009.8
20260507071602 52 300 3.0 6.0 0.00 0.41 0.00 67 1009.7
20260507071505 52 300 2.0 6.0 0.00 0.41 0.00 67 1009.8
20260507071400 52 19 1.0 6.0 0.00 0.41 0.00 66 1009.8
20260507071300 52 331 2.0 6.0 0.00 0.41 0.00 66 1009.8
20260507071202 52 5 2.0 6.0 0.00 0.41 0.00 66 1009.7
20260507071100 52 11 5.0 7.0 0.00 0.41 0.00 67 1009.8
20260507071005 52 327 6.0 6.0 0.00 0.41 0.00 70 1010.0
20260507070800 52 21 0.0 4.0 0.00 0.41 0.00 69 1010.0
20260507070701 52 21 1.0 4.0 0.00 0.41 0.00 69 1010.0
20260507070600 52 21 1.0 4.0 0.00 0.41 0.00 69 1009.9
20260507070202 52 22 0.0 5.0 0.00 0.41 0.00 69 1009.8
20260507070101 52 17 1.0 5.0 0.00 0.41 0.00 69 1009.9
20260507070000 52 338 2.0 5.0 0.00 0.41 0.00 71 1009.9
20260507065859 52 338 0.0 5.0 0.00 0.41 0.00 70 1009.9
20260507065700 52 338 0.0 5.0 0.00 0.41 0.00 69 1009.8
20260507065505 52 338 0.0 5.0 0.00 0.41 0.00 70 1009.8
20260507065359 52 338 3.0 5.0 0.00 0.41 0.00 71 1009.8
20260507065301 52 24 3.0 5.0 0.00 0.41 0.00 72 1009.8
20260507065159 52 24 0.0 5.0 0.00 0.41 0.00 71 1009.8
20260507065101 52 24 1.0 5.0 0.00 0.41 0.00 71 1009.8
20260507065005 52 25 0.0 5.0 0.00 0.41 0.00 72 1009.8
20260507064700 52 26 3.0 5.0 0.00 0.41 0.00 72 1009.8
20260507064559 52 308 2.0 3.0 0.00 0.41 0.00 73 1009.8
20260507064400 52 308 1.0 5.0 0.00 0.41 0.00 72 1009.8
20260507064259 52 308 0.0 5.0 0.00 0.41 0.00 74 1009.7
20260507064200 52 308 2.0 5.0 0.00 0.41 0.00 74 1009.8
20260507064059 52 308 1.0 5.0 0.00 0.41 0.00 75 1009.7
20260507064003 52 308 1.0 5.0 0.00 0.41 0.00 74 1009.6
20260507063900 52 308 0.0 5.0 0.00 0.41 0.00 74 1009.6
20260507063803 52 308 2.0 5.0 0.00 0.41 0.00 74 1009.6
20260507063700 52 308 3.0 5.0 0.00 0.41 0.00 75 1009.7
20260507063600 52 317 0.0 5.0 0.00 0.41 0.00 75 1009.6
20260507063505 52 317 2.0 5.0 0.00 0.41 0.00 76 1009.6
20260507063400 52 36 3.0 4.0 0.00 0.41 0.00 77 1009.6
20260507063301 52 37 0.0 4.0 0.00 0.41 0.00 78 1009.6
20260507063200 52 37 0.0 4.0 0.00 0.41 0.00 77 1009.7
20260507063058 52 37 1.0 4.0 0.00 0.41 0.00 78 1009.7
20260507062901 52 37 0.0 4.0 0.00 0.41 0.00 78 1009.7
20260507062800 52 37 1.0 4.0 0.00 0.41 0.00 79 1009.7
20260507062700 52 37 1.0 4.0 0.00 0.41 0.00 80 1009.7
20260507062559 52 37 1.0 4.0 0.00 0.41 0.00 80 1009.7
20260507062504 52 38 0.0 4.0 0.00 0.41 0.00 80 1009.7
20260507062400 52 38 1.0 4.0 0.00 0.41 0.00 79 1009.7
20260507062159 52 38 3.0 4.0 0.00 0.41 0.00 80 1009.7
20260507062100 52 38 3.0 4.0 0.00 0.41 0.00 80 1009.8
20260507062006 52 38 4.0 4.0 0.00 0.41 0.00 81 1009.8
20260507061901 52 228 0.0 4.0 0.00 0.41 0.00 81 1009.8
20260507061800 52 228 0.0 4.0 0.00 0.41 0.00 80 1009.7
20260507061701 52 228 0.0 5.0 0.00 0.41 0.00 80 1009.7
20260507061601 52 228 4.0 5.0 0.00 0.41 0.00 81 1009.7
20260507061504 53 227 0.0 5.0 0.00 0.41 0.00 80 1009.7
20260507061401 53 227 0.0 5.0 0.00 0.41 0.00 80 1009.7
20260507061300 53 227 1.0 8.0 0.00 0.41 0.00 80 1009.7
20260507061005 53 333 2.0 8.0 0.00 0.41 0.00 80 1009.8
20260507060901 53 333 3.0 8.0 0.00 0.41 0.00 80 1009.7
20260507060800 53 319 2.0 8.0 0.00 0.41 0.00 80 1009.7
20260507060700 53 265 1.0 8.0 0.00 0.41 0.00 80 1009.7
20260507060600 53 265 1.0 8.0 0.00 0.41 0.00 80 1009.7
20260507060400 53 345 3.0 8.0 0.00 0.41 0.00 81 1009.8
20260507060300 53 289 2.0 6.0 0.00 0.41 0.00 82 1009.7
20260507060200 53 348 5.0 6.0 0.00 0.41 0.00 82 1009.8
20260507060100 53 339 1.0 5.0 0.00 0.41 0.00 82 1009.7
20260507060006 53 339 1.0 5.0 0.00 0.41 0.00 82 1009.8
20260507055900 53 267 6.0 6.0 0.00 0.41 0.00 83 1009.8
20260507055800 53 290 0.0 5.0 0.00 0.41 0.00 83 1009.8
20260507055701 53 290 3.0 5.0 0.00 0.41 0.00 83 1009.8
20260507055602 53 290 0.0 5.0 0.00 0.41 0.00 83 1009.8
20260507055504 53 317 2.0 5.0 0.00 0.41 0.00 83 1009.8
20260507055401 53 319 2.0 5.0 0.00 0.41 0.00 83 1009.8
20260507055300 53 319 1.0 5.0 0.00 0.41 0.00 83 1009.8
20260507055202 53 317 0.0 6.0 0.00 0.41 0.00 83 1009.8
20260507054901 53 328 2.0 6.0 0.00 0.41 0.00 85 1009.6
20260507054702 53 329 0.0 6.0 0.00 0.41 0.00 85 1009.7
20260507054601 53 329 2.0 6.0 0.00 0.41 0.00 85 1009.6
20260507054506 53 329 0.0 6.0 0.00 0.41 0.00 85 1009.6
20260507054302 53 343 1.0 7.0 0.00 0.41 0.00 85 1009.7
20260507054202 53 33 2.0 4.0 0.00 0.41 0.00 86 1009.7
20260507054103 53 33 0.0 5.0 0.00 0.41 0.00 86 1009.7
20260507054005 53 33 0.0 8.0 0.00 0.41 0.00 86 1009.7
20260507053901 53 33 2.0 8.0 0.00 0.41 0.00 86 1009.7
20260507053801 53 33 0.0 8.0 0.00 0.41 0.00 86 1009.7
20260507053702 53 33 1.0 8.0 0.00 0.41 0.00 86 1009.7
20260507053601 53 33 1.0 8.0 0.00 0.41 0.00 86 1009.7
20260507053506 53 34 0.0 8.0 0.00 0.41 0.00 86 1009.7
20260507053401 53 34 0.0 8.0 0.00 0.41 0.00 86 1009.7
20260507053301 53 34 1.0 8.0 0.00 0.41 0.00 86 1009.8
20260507053202 53 50 3.0 8.0 0.00 0.41 0.00 86 1009.8
20260507053102 53 360 8.0 8.0 0.00 0.41 0.00 87 1009.8
20260507053006 53 166 4.0 4.0 0.00 0.41 0.00 87 1009.8
20260507052900 53 165 2.0 4.0 0.00 0.41 0.00 87 1009.8
20260507052701 53 9 0.0 4.0 0.00 0.41 0.00 87 1009.7
20260507052601 53 5 2.0 4.0 0.00 0.41 0.00 88 1009.7
20260507052505 53 9 1.0 4.0 0.00 0.41 0.00 88 1009.8
20260507052402 53 9 0.0 4.0 0.00 0.41 0.00 88 1009.8
20260507052300 53 9 1.0 4.0 0.00 0.41 0.00 88 1009.7
20260507052201 53 9 1.0 4.0 0.00 0.41 0.00 88 1009.7
20260507052101 53 5 0.0 4.0 0.00 0.41 0.00 88 1009.7
20260507052005 53 9 0.0 4.0 0.00 0.41 0.00 88 1009.6
20260507051901 53 9 0.0 4.0 0.00 0.41 0.00 88 1009.7
20260507051801 53 9 1.0 4.0 0.00 0.41 0.00 88 1009.7
20260507051701 53 9 2.0 4.0 0.00 0.41 0.00 88 1009.7
20260507051402 53 9 2.0 6.0 0.00 0.41 0.00 89 1009.7
20260507051300 53 9 2.0 6.0 0.00 0.41 0.00 89 1009.8
20260507051201 53 9 2.0 6.0 0.00 0.41 0.00 89 1009.8
20260507051101 53 9 1.0 6.0 0.00 0.41 0.00 89 1009.8
20260507051005 53 9 3.0 6.0 0.00 0.41 0.00 89 1009.8
20260507050801 53 9 1.0 6.0 0.00 0.41 0.00 89 1009.9
20260507050700 53 9 4.0 6.0 0.00 0.41 0.00 89 1009.9
20260507050600 53 13 4.0 5.0 0.00 0.41 0.00 90 1009.8
20260507050505 53 30 3.0 8.0 0.00 0.41 0.00 90 1009.8
20260507050402 53 317 2.0 8.0 0.00 0.41 0.00 89 1009.8
20260507050301 53 316 1.0 8.0 0.00 0.41 0.00 89 1009.7
20260507050201 53 315 2.0 8.0 0.00 0.41 0.00 89 1009.6
20260507050100 53 330 3.0 8.0 0.00 0.41 0.00 90 1009.6
20260507045900 53 5 3.0 8.0 0.00 0.41 0.00 90 1009.6
20260507045800 53 5 3.0 8.0 0.00 0.41 0.00 90 1009.6
20260507045659 53 5 2.0 8.0 0.00 0.41 0.00 90 1009.6
20260507045600 53 15 5.0 6.0 0.00 0.41 0.00 90 1009.6
20260507045505 53 14 2.0 6.0 0.00 0.41 0.00 90 1009.6
20260507045300 53 355 1.0 5.0 0.00 0.41 0.00 89 1009.6
20260507045200 53 355 2.0 5.0 0.00 0.41 0.00 89 1009.7
20260507045059 53 360 3.0 5.0 0.00 0.41 0.00 89 1009.8
20260507045005 53 9 3.0 5.0 0.00 0.41 0.00 89 1009.8
20260507044502 53 9 4.0 4.0 0.00 0.41 0.00 89 1009.9
20260507044300 53 334 4.0 4.0 0.00 0.41 0.00 89 1009.9
20260507044005 53 13 1.0 6.0 0.00 0.41 0.00 89 1010.0
20260507043900 53 16 2.0 6.0 0.00 0.41 0.00 89 1010.0
20260507043800 54 16 3.0 6.0 0.00 0.41 0.00 89 1010.1
20260507043659 54 18 2.0 9.0 0.00 0.41 0.00 89 1010.2
20260507043601 54 17 1.0 9.0 0.00 0.41 0.00 89 1010.2
20260507043505 54 17 3.0 9.0 0.00 0.41 0.00 89 1010.1
20260507043400 54 23 2.0 9.0 0.00 0.41 0.00 89 1010.1
20260507043300 54 28 3.0 9.0 0.00 0.41 0.00 89 1010.0
20260507043200 54 5 2.0 9.0 0.00 0.41 0.00 89 1009.9
20260507043059 54 5 2.0 9.0 0.00 0.41 0.00 89 1009.9
20260507043003 54 360 3.0 9.0 0.00 0.41 0.00 89 1009.9
20260507042900 54 20 4.0 9.0 0.00 0.41 0.00 89 1009.8
20260507042801 54 30 4.0 9.0 0.00 0.41 0.00 89 1009.8
20260507042700 54 13 4.0 9.0 0.00 0.41 0.00 89 1009.8
20260507042600 54 13 3.0 9.0 0.00 0.41 0.00 89 1009.8
20260507042505 54 16 3.0 9.0 0.00 0.41 0.00 89 1009.8
20260507042400 54 5 2.0 9.0 0.00 0.41 0.00 89 1009.8
20260507042259 54 360 3.0 9.0 0.00 0.41 0.00 89 1009.7
20260507042201 54 360 2.0 9.0 0.00 0.41 0.00 89 1009.7
20260507042101 54 27 3.0 5.0 0.00 0.41 0.00 89 1009.8
20260507042006 54 5 2.0 5.0 0.00 0.41 0.00 88 1009.8
20260507041900 54 5 2.0 5.0 0.00 0.41 0.00 89 1009.8
20260507041800 54 5 3.0 5.0 0.00 0.41 0.00 89 1009.8
20260507041700 54 9 4.0 5.0 0.00 0.41 0.00 88 1009.8
20260507041600 54 9 5.0 5.0 0.00 0.41 0.00 88 1009.8
20260507041505 54 39 3.0 5.0 0.00 0.41 0.00 88 1009.8
20260507041400 54 39 2.0 5.0 0.00 0.41 0.00 88 1009.8
20260507041300 54 40 2.0 6.0 0.00 0.41 0.00 88 1009.8
20260507041200 54 40 3.0 6.0 0.00 0.41 0.00 88 1009.8
20260507041005 54 42 4.0 6.0 0.00 0.41 0.00 88 1009.8
20260507040900 54 42 2.0 6.0 0.00 0.41 0.00 88 1009.9
20260507040759 54 42 3.0 6.0 0.00 0.41 0.00 87 1009.9
20260507040700 54 44 2.0 6.0 0.00 0.41 0.00 87 1010.0
20260507040559 54 46 4.0 6.0 0.00 0.41 0.00 87 1010.0
20260507040505 54 56 4.0 6.0 0.00 0.41 0.00 87 1010.0
20260507040400 54 77 1.0 6.0 0.00 0.41 0.00 88 1009.9
20260507040300 54 46 6.0 6.0 0.00 0.41 0.00 88 1009.9
20260507040200 55 5 4.0 5.0 0.00 0.41 0.00 88 1009.9
20260507040008 55 24 1.0 5.0 0.00 0.41 0.41 87 1009.8